Time,TemperatureF,DewpointF,PressureIn,WindDirection,WindDirectionDegrees,WindSpeedMPH,WindSpeedGustMPH,Humidity,HourlyPrecipIn,Conditions,Clouds,dailyrainin,SoftwareType,DateUTC
2013-03-27 00:01:00,31.5,12.1,28.67,NNW,334,3.1,3.1,44,0.00,,---,0.00,VWS V14.01,2013-03-27 05:01:00,
2013-03-27 00:02:00,31.5,12.1,28.67,NNW,334,0.0,3.1,44,0.00,,---,0.00,VWS V14.01,2013-03-27 05:02:00,
2013-03-27 00:06:00,31.3,11.9,28.67,NNW,334,3.1,3.1,44,0.00,,---,0.00,VWS V14.01,2013-03-27 05:06:00,
2013-03-27 00:07:00,31.3,11.9,28.67,NNW,334,2.2,3.1,44,0.00,,---,0.00,VWS V14.01,2013-03-27 05:07:00,
2013-03-27 00:11:00,31.3,11.9,28.64,NNW,334,3.6,3.6,44,0.00,,---,0.00,VWS V14.01,2013-03-27 05:11:00,
2013-03-27 00:12:00,31.3,11.9,28.64,NNW,334,2.2,3.6,44,0.00,,---,0.00,VWS V14.01,2013-03-27 05:12:00,
2013-03-27 00:17:00,31.1,12.2,28.64,NNW,334,5.4,5.4,45,0.00,,---,0.00,VWS V14.01,2013-03-27 05:17:00,
2013-03-27 00:18:00,31.1,12.2,28.64,NNW,333,3.1,5.4,45,0.00,,---,0.00,VWS V14.01,2013-03-27 05:18:00,
2013-03-27 00:22:00,31.1,12.2,28.64,NW,323,2.2,2.2,45,0.00,,---,0.00,VWS V14.01,2013-03-27 05:22:00,
2013-03-27 00:23:00,31.1,12.2,28.64,NW,323,2.2,2.2,45,0.00,,---,0.00,VWS V14.01,2013-03-27 05:23:00,
2013-03-27 00:27:00,31.1,12.2,28.64,NW,315,4.0,4.0,45,0.00,,---,0.00,VWS V14.01,2013-03-27 05:27:00,
2013-03-27 00:28:00,31.1,12.2,28.64,NW,315,3.1,4.0,45,0.00,,---,0.00,VWS V14.01,2013-03-27 05:28:00,
2013-03-27 00:32:00,31.1,12.2,28.67,NW,315,0.0,0.0,45,0.00,,---,0.00,VWS V14.01,2013-03-27 05:32:00,
2013-03-27 00:33:00,31.1,12.2,28.67,NW,315,0.0,0.0,45,0.00,,---,0.00,VWS V14.01,2013-03-27 05:33:00,
2013-03-27 00:37:00,30.9,12.1,28.67,NW,315,0.0,0.0,45,0.00,,---,0.00,VWS V14.01,2013-03-27 05:37:00,
2013-03-27 00:38:00,30.9,12.1,28.67,NW,315,0.0,2.2,45,0.00,,---,0.00,VWS V14.01,2013-03-27 05:38:00,
2013-03-27 00:43:00,30.7,11.9,28.67,NW,315,0.0,0.0,45,0.00,,---,0.00,VWS V14.01,2013-03-27 05:43:00,
2013-03-27 00:48:00,30.7,11.9,28.67,NW,315,0.0,0.0,45,0.00,,---,0.00,VWS V14.01,2013-03-27 05:48:00,
2013-03-27 00:53:00,30.6,11.8,28.67,NW,315,0.0,0.0,45,0.00,,---,0.00,VWS V14.01,2013-03-27 05:53:00,
2013-03-27 00:54:00,30.6,11.8,28.67,NW,315,0.0,0.0,45,0.00,,---,0.00,VWS V14.01,2013-03-27 05:54:00,
2013-03-27 00:58:00,30.4,11.6,28.67,NW,315,0.0,0.0,45,0.00,,---,0.00,VWS V14.01,2013-03-27 05:58:00,
2013-03-27 00:59:00,30.4,11.6,28.67,NW,315,0.0,0.0,45,0.00,,---,0.00,VWS V14.01,2013-03-27 05:59:00,
2013-03-27 01:03:00,30.0,11.3,28.67,NW,315,0.0,0.0,45,0.00,,---,0.00,VWS V14.01,2013-03-27 06:03:00,
2013-03-27 01:04:00,30.0,11.3,28.67,NW,315,0.0,0.0,45,0.00,,---,0.00,VWS V14.01,2013-03-27 06:04:00,
2013-03-27 01:08:00,29.8,11.1,28.67,NW,315,0.0,0.0,45,0.00,,---,0.00,VWS V14.01,2013-03-27 06:08:00,
2013-03-27 01:09:00,29.8,11.1,28.67,NW,315,0.0,0.0,45,0.00,,---,0.00,VWS V14.01,2013-03-27 06:09:00,
2013-03-27 01:13:00,29.7,11.4,28.67,NW,315,0.0,0.0,46,0.00,,---,0.00,VWS V14.01,2013-03-27 06:13:00,
2013-03-27 01:14:00,29.7,11.4,28.67,NW,315,0.0,0.0,46,0.00,,---,0.00,VWS V14.01,2013-03-27 06:14:00,
2013-03-27 01:18:00,29.5,11.3,28.67,NW,315,0.0,0.0,46,0.00,,---,0.00,VWS V14.01,2013-03-27 06:18:00,
2013-03-27 01:19:00,29.5,11.3,28.67,NW,315,0.0,0.0,46,0.00,,---,0.00,VWS V14.01,2013-03-27 06:19:00,
2013-03-27 01:23:00,29.5,11.3,28.67,NW,315,0.0,0.0,46,0.00,,---,0.00,VWS V14.01,2013-03-27 06:23:00,
2013-03-27 01:24:00,29.3,11.1,28.67,NW,315,0.0,0.0,46,0.00,,---,0.00,VWS V14.01,2013-03-27 06:24:00,
2013-03-27 01:28:00,29.3,11.1,28.67,NW,315,0.0,0.0,46,0.00,,---,0.00,VWS V14.01,2013-03-27 06:28:00,
2013-03-27 01:29:00,29.3,11.1,28.67,NW,315,0.0,0.0,46,0.00,,---,0.00,VWS V14.01,2013-03-27 06:29:00,
2013-03-27 01:30:00,29.1,10.9,28.67,NW,315,0.0,0.0,46,0.00,,---,0.00,VWS V14.01,2013-03-27 06:30:00,
2013-03-27 01:34:00,29.1,10.9,28.64,NW,315,0.0,0.0,46,0.00,,---,0.00,VWS V14.01,2013-03-27 06:34:00,
2013-03-27 01:35:00,29.1,10.9,28.64,NW,315,0.0,0.0,46,0.00,,---,0.00,VWS V14.01,2013-03-27 06:35:00,
2013-03-27 01:39:00,29.1,11.4,28.64,NW,315,0.0,0.0,47,0.00,,---,0.00,VWS V14.01,2013-03-27 06:39:00,
2013-03-27 01:40:00,29.1,11.4,28.64,NW,315,0.0,0.0,47,0.00,,---,0.00,VWS V14.01,2013-03-27 06:40:00,
2013-03-27 01:44:00,28.9,11.2,28.64,NW,315,0.0,0.0,47,0.00,,---,0.00,VWS V14.01,2013-03-27 06:44:00,
2013-03-27 01:45:00,28.9,11.2,28.64,NW,315,0.0,0.0,47,0.00,,---,0.00,VWS V14.01,2013-03-27 06:45:00,
2013-03-27 01:49:00,28.9,11.7,28.64,NW,315,0.0,0.0,48,0.00,,---,0.00,VWS V14.01,2013-03-27 06:49:00,
2013-03-27 01:50:00,28.9,11.7,28.64,NW,315,0.0,0.0,48,0.00,,---,0.00,VWS V14.01,2013-03-27 06:50:00,
2013-03-27 01:54:00,28.9,11.7,28.64,NW,315,0.0,0.0,48,0.00,,---,0.00,VWS V14.01,2013-03-27 06:54:00,
2013-03-27 01:55:00,28.9,11.7,28.64,NW,315,0.0,0.0,48,0.00,,---,0.00,VWS V14.01,2013-03-27 06:55:00,
2013-03-27 01:59:00,28.8,11.6,28.64,NW,315,0.0,0.0,48,0.00,,---,0.00,VWS V14.01,2013-03-27 06:59:00,
2013-03-27 02:00:00,28.8,11.6,28.64,NW,315,0.0,0.0,48,0.00,,---,0.00,VWS V14.01,2013-03-27 07:00:00,
2013-03-27 02:04:00,28.6,11.4,28.64,NW,315,0.0,0.0,48,0.00,,---,0.00,VWS V14.01,2013-03-27 07:04:00,
2013-03-27 02:05:00,28.6,11.4,28.64,NW,315,0.0,0.0,48,0.00,,---,0.00,VWS V14.01,2013-03-27 07:05:00,
2013-03-27 02:09:00,28.4,11.7,28.64,NW,315,0.0,0.0,49,0.00,,---,0.00,VWS V14.01,2013-03-27 07:09:00,
2013-03-27 02:10:00,28.4,11.7,28.64,NW,315,0.0,0.0,49,0.00,,---,0.00,VWS V14.01,2013-03-27 07:10:00,
2013-03-27 02:14:00,28.2,12.0,28.64,NW,315,0.0,0.0,50,0.00,,---,0.00,VWS V14.01,2013-03-27 07:14:00,
2013-03-27 02:15:00,28.2,12.0,28.64,NW,315,0.0,0.0,50,0.00,,---,0.00,VWS V14.01,2013-03-27 07:15:00,
2013-03-27 02:19:00,27.9,11.6,28.64,NW,315,0.0,0.0,50,0.00,,---,0.00,VWS V14.01,2013-03-27 07:19:00,
2013-03-27 02:20:00,27.9,11.6,28.64,NW,315,0.0,0.0,50,0.00,,---,0.00,VWS V14.01,2013-03-27 07:20:00,
2013-03-27 02:24:00,27.9,11.6,28.64,NW,315,0.0,0.0,50,0.00,,---,0.00,VWS V14.01,2013-03-27 07:24:00,
2013-03-27 02:25:00,27.9,12.1,28.64,NW,315,0.0,0.0,51,0.00,,---,0.00,VWS V14.01,2013-03-27 07:25:00,
2013-03-27 02:29:00,27.9,12.1,28.64,NW,315,0.0,0.0,51,0.00,,---,0.00,VWS V14.01,2013-03-27 07:29:00,
2013-03-27 02:30:00,28.0,12.3,28.64,NW,315,0.0,0.0,51,0.00,,---,0.00,VWS V14.01,2013-03-27 07:30:00,
2013-03-27 02:31:00,28.0,12.3,28.64,NW,315,0.0,0.0,51,0.00,,---,0.00,VWS V14.01,2013-03-27 07:31:00,
2013-03-27 02:34:00,28.0,12.3,28.64,NW,315,0.0,0.0,51,0.00,,---,0.00,VWS V14.01,2013-03-27 07:34:00,
2013-03-27 02:35:00,28.0,12.3,28.64,NW,315,0.0,0.0,51,0.00,,---,0.00,VWS V14.01,2013-03-27 07:35:00,
2013-03-27 02:36:00,28.0,12.3,28.64,NW,315,0.0,0.0,51,0.00,,---,0.00,VWS V14.01,2013-03-27 07:36:00,
2013-03-27 02:39:00,28.0,12.7,28.64,NW,315,0.0,0.0,52,0.00,,---,0.00,VWS V14.01,2013-03-27 07:39:00,
2013-03-27 02:40:00,28.0,12.7,28.64,NW,315,0.0,0.0,52,0.00,,---,0.00,VWS V14.01,2013-03-27 07:40:00,
2013-03-27 02:41:00,28.0,12.7,28.64,NW,315,0.0,0.0,52,0.00,,---,0.00,VWS V14.01,2013-03-27 07:41:00,
2013-03-27 02:45:00,28.0,12.7,28.64,NW,315,0.0,0.0,52,0.00,,---,0.00,VWS V14.01,2013-03-27 07:45:00,
2013-03-27 02:46:00,28.0,12.7,28.64,NW,315,0.0,0.0,52,0.00,,---,0.00,VWS V14.01,2013-03-27 07:46:00,
2013-03-27 02:50:00,28.0,12.7,28.64,NW,315,0.0,0.0,52,0.00,,---,0.00,VWS V14.01,2013-03-27 07:50:00,
2013-03-27 02:51:00,28.0,12.7,28.64,NW,315,0.0,0.0,52,0.00,,---,0.00,VWS V14.01,2013-03-27 07:51:00,
2013-03-27 02:55:00,28.2,13.3,28.64,NW,315,0.0,0.0,53,0.00,,---,0.00,VWS V14.01,2013-03-27 07:55:00,
2013-03-27 02:56:00,28.2,13.3,28.64,NW,315,0.0,0.0,53,0.00,,---,0.00,VWS V14.01,2013-03-27 07:56:00,
2013-03-27 02:57:00,28.2,13.3,28.64,NW,315,0.0,0.0,53,0.00,,---,0.00,VWS V14.01,2013-03-27 07:57:00,
2013-03-27 03:00:00,28.4,13.5,28.64,NW,315,0.0,0.0,53,0.00,,---,0.00,VWS V14.01,2013-03-27 08:00:00,
2013-03-27 03:02:00,28.4,13.5,28.64,NW,315,0.0,0.0,53,0.00,,---,0.00,VWS V14.01,2013-03-27 08:02:00,
2013-03-27 03:05:00,28.4,13.5,28.64,NW,315,0.0,0.0,53,0.00,,---,0.00,VWS V14.01,2013-03-27 08:05:00,
2013-03-27 03:07:00,28.4,13.5,28.64,NW,315,0.0,0.0,53,0.00,,---,0.00,VWS V14.01,2013-03-27 08:07:00,
2013-03-27 03:10:00,28.4,13.5,28.64,NW,315,0.0,0.0,53,0.00,,---,0.00,VWS V14.01,2013-03-27 08:10:00,
2013-03-27 03:11:00,28.4,13.5,28.64,NW,315,0.0,0.0,53,0.00,,---,0.00,VWS V14.01,2013-03-27 08:11:00,
2013-03-27 03:12:00,28.4,13.5,28.64,NW,315,0.0,0.0,53,0.00,,---,0.00,VWS V14.01,2013-03-27 08:12:00,
2013-03-27 03:15:00,28.4,13.5,28.64,NW,315,0.0,0.0,53,0.00,,---,0.00,VWS V14.01,2013-03-27 08:15:00,
2013-03-27 03:16:00,28.4,13.5,28.64,NW,315,0.0,0.0,53,0.00,,---,0.00,VWS V14.01,2013-03-27 08:16:00,
2013-03-27 03:17:00,28.2,13.3,28.64,NW,315,0.0,0.0,53,0.00,,---,0.00,VWS V14.01,2013-03-27 08:17:00,
2013-03-27 03:20:00,28.2,13.3,28.64,NW,315,0.0,0.0,53,0.00,,---,0.00,VWS V14.01,2013-03-27 08:20:00,
2013-03-27 03:21:00,28.2,13.3,28.64,NW,315,0.0,0.0,53,0.00,,---,0.00,VWS V14.01,2013-03-27 08:21:00,
2013-03-27 03:22:00,28.2,13.3,28.64,NW,315,0.0,0.0,53,0.00,,---,0.00,VWS V14.01,2013-03-27 08:22:00,
2013-03-27 03:25:00,28.2,13.7,28.64,NW,315,0.0,0.0,54,0.00,,---,0.00,VWS V14.01,2013-03-27 08:25:00,
2013-03-27 03:26:00,28.2,13.7,28.64,NW,315,0.0,0.0,54,0.00,,---,0.00,VWS V14.01,2013-03-27 08:26:00,
2013-03-27 03:27:00,28.2,13.7,28.64,NW,315,0.0,0.0,54,0.00,,---,0.00,VWS V14.01,2013-03-27 08:27:00,
2013-03-27 03:28:00,28.2,13.7,28.64,NW,315,0.0,0.0,54,0.00,,---,0.00,VWS V14.01,2013-03-27 08:28:00,
2013-03-27 03:30:00,28.2,13.7,28.64,NW,315,0.0,0.0,54,0.00,,---,0.00,VWS V14.01,2013-03-27 08:30:00,
2013-03-27 03:31:00,28.2,13.7,28.64,NW,315,0.0,0.0,54,0.00,,---,0.00,VWS V14.01,2013-03-27 08:31:00,
2013-03-27 03:32:00,28.2,13.7,28.64,NW,315,0.0,0.0,54,0.00,,---,0.00,VWS V14.01,2013-03-27 08:32:00,
2013-03-27 03:33:00,28.2,13.7,28.64,NW,315,0.0,0.0,54,0.00,,---,0.00,VWS V14.01,2013-03-27 08:33:00,
2013-03-27 03:35:00,28.2,13.7,28.64,NW,315,0.0,0.0,54,0.00,,---,0.00,VWS V14.01,2013-03-27 08:35:00,
2013-03-27 03:37:00,28.2,13.7,28.64,NW,315,0.0,0.0,54,0.00,,---,0.00,VWS V14.01,2013-03-27 08:37:00,
2013-03-27 03:38:00,28.2,13.7,28.64,NW,315,0.0,0.0,54,0.00,,---,0.00,VWS V14.01,2013-03-27 08:38:00,
2013-03-27 03:40:00,28.0,13.6,28.64,NW,315,0.0,0.0,54,0.00,,---,0.00,VWS V14.01,2013-03-27 08:40:00,
2013-03-27 03:42:00,28.0,13.6,28.64,NW,315,0.0,0.0,54,0.00,,---,0.00,VWS V14.01,2013-03-27 08:42:00,
2013-03-27 03:43:00,28.0,13.6,28.64,NW,315,0.0,0.0,54,0.00,,---,0.00,VWS V14.01,2013-03-27 08:43:00,
2013-03-27 03:46:00,27.9,13.4,28.64,NW,314,0.0,0.0,54,0.00,,---,0.00,VWS V14.01,2013-03-27 08:46:00,
2013-03-27 03:47:00,27.9,13.4,28.64,NW,314,0.0,0.0,54,0.00,,---,0.00,VWS V14.01,2013-03-27 08:47:00,
2013-03-27 03:49:00,27.9,13.4,28.64,NW,314,0.0,0.0,54,0.00,,---,0.00,VWS V14.01,2013-03-27 08:49:00,
2013-03-27 03:52:00,27.9,13.4,28.64,NW,315,0.0,0.0,54,0.00,,---,0.00,VWS V14.01,2013-03-27 08:52:00,
2013-03-27 03:54:00,27.9,13.4,28.64,NW,315,0.0,0.0,54,0.00,,---,0.00,VWS V14.01,2013-03-27 08:54:00,
2013-03-27 03:57:00,27.7,13.2,28.64,NW,315,0.0,0.0,54,0.00,,---,0.00,VWS V14.01,2013-03-27 08:57:00,
2013-03-27 03:59:00,27.7,13.2,28.64,NW,315,0.0,0.0,54,0.00,,---,0.00,VWS V14.01,2013-03-27 08:59:00,
2013-03-27 04:02:00,27.5,13.1,28.64,NW,315,0.0,0.0,54,0.00,,---,0.00,VWS V14.01,2013-03-27 09:02:00,
2013-03-27 04:03:00,27.5,13.1,28.64,NW,315,0.0,0.0,54,0.00,,---,0.00,VWS V14.01,2013-03-27 09:03:00,
2013-03-27 04:04:00,27.5,13.1,28.64,NW,315,0.0,0.0,54,0.00,,---,0.00,VWS V14.01,2013-03-27 09:04:00,
2013-03-27 04:07:00,27.5,13.1,28.64,NW,315,0.0,0.0,54,0.00,,---,0.00,VWS V14.01,2013-03-27 09:07:00,
2013-03-27 04:08:00,27.5,13.1,28.64,NW,315,0.0,0.0,54,0.00,,---,0.00,VWS V14.01,2013-03-27 09:08:00,
2013-03-27 04:09:00,27.3,12.9,28.64,NW,315,0.0,0.0,54,0.00,,---,0.00,VWS V14.01,2013-03-27 09:09:00,
2013-03-27 04:12:00,27.3,12.9,28.64,NW,315,0.0,0.0,54,0.00,,---,0.00,VWS V14.01,2013-03-27 09:12:00,
2013-03-27 04:13:00,27.1,13.1,28.64,NW,315,0.0,0.0,55,0.00,,---,0.00,VWS V14.01,2013-03-27 09:13:00,
2013-03-27 04:14:00,27.1,13.1,28.64,NW,315,0.0,0.0,55,0.00,,---,0.00,VWS V14.01,2013-03-27 09:14:00,
2013-03-27 04:17:00,27.1,13.1,28.64,NW,315,0.0,0.0,55,0.00,,---,0.00,VWS V14.01,2013-03-27 09:17:00,
2013-03-27 04:18:00,27.0,13.0,28.64,NW,315,0.0,0.0,55,0.00,,---,0.00,VWS V14.01,2013-03-27 09:18:00,
2013-03-27 04:19:00,27.0,13.0,28.64,NW,315,0.0,0.0,55,0.00,,---,0.00,VWS V14.01,2013-03-27 09:19:00,
2013-03-27 04:22:00,27.0,13.0,28.64,NW,315,0.0,0.0,55,0.00,,---,0.00,VWS V14.01,2013-03-27 09:22:00,
2013-03-27 04:23:00,27.0,13.0,28.64,NW,315,0.0,0.0,55,0.00,,---,0.00,VWS V14.01,2013-03-27 09:23:00,
2013-03-27 04:24:00,27.0,13.0,28.64,NW,315,0.0,0.0,55,0.00,,---,0.00,VWS V14.01,2013-03-27 09:24:00,
2013-03-27 04:27:00,27.0,13.0,28.64,NW,315,0.0,0.0,55,0.00,,---,0.00,VWS V14.01,2013-03-27 09:27:00,
2013-03-27 04:28:00,27.0,13.0,28.64,NW,315,0.0,0.0,55,0.00,,---,0.00,VWS V14.01,2013-03-27 09:28:00,
2013-03-27 04:29:00,27.0,13.0,28.64,NW,315,0.0,0.0,55,0.00,,---,0.00,VWS V14.01,2013-03-27 09:29:00,
2013-03-27 04:32:00,27.0,13.4,28.64,NW,315,0.0,0.0,56,0.00,,---,0.00,VWS V14.01,2013-03-27 09:32:00,
2013-03-27 04:33:00,27.0,13.4,28.64,NW,315,0.0,0.0,56,0.00,,---,0.00,VWS V14.01,2013-03-27 09:33:00,
2013-03-27 04:34:00,27.0,13.4,28.64,NW,315,0.0,0.0,56,0.00,,---,0.00,VWS V14.01,2013-03-27 09:34:00,
2013-03-27 04:37:00,27.0,13.4,28.64,NW,315,0.0,0.0,56,0.00,,---,0.00,VWS V14.01,2013-03-27 09:37:00,
2013-03-27 04:38:00,27.0,13.4,28.64,NW,315,0.0,0.0,56,0.00,,---,0.00,VWS V14.01,2013-03-27 09:38:00,
2013-03-27 04:40:00,27.0,13.4,28.64,NW,315,0.0,0.0,56,0.00,,---,0.00,VWS V14.01,2013-03-27 09:40:00,
2013-03-27 04:43:00,27.0,13.4,28.64,NW,315,0.0,0.0,56,0.00,,---,0.00,VWS V14.01,2013-03-27 09:43:00,
2013-03-27 04:45:00,27.0,13.4,28.64,NW,315,0.0,0.0,56,0.00,,---,0.00,VWS V14.01,2013-03-27 09:45:00,
2013-03-27 04:48:00,27.0,13.4,28.64,NW,315,0.0,0.0,56,0.00,,---,0.00,VWS V14.01,2013-03-27 09:48:00,
2013-03-27 04:50:00,26.8,13.2,28.64,NW,315,0.0,0.0,56,0.00,,---,0.00,VWS V14.01,2013-03-27 09:50:00,
2013-03-27 04:53:00,26.8,13.6,28.64,NW,315,0.0,0.0,57,0.00,,---,0.00,VWS V14.01,2013-03-27 09:53:00,
2013-03-27 04:55:00,26.8,13.6,28.64,NW,315,0.0,0.0,57,0.00,,---,0.00,VWS V14.01,2013-03-27 09:55:00,
2013-03-27 04:58:00,27.0,13.8,28.64,NW,315,0.0,0.0,57,0.00,,---,0.00,VWS V14.01,2013-03-27 09:58:00,
2013-03-27 05:00:00,26.8,13.6,28.64,NW,315,0.0,0.0,57,0.00,,---,0.00,VWS V14.01,2013-03-27 10:00:00,
2013-03-27 05:03:00,26.6,13.4,28.64,NW,315,0.0,0.0,57,0.00,,---,0.00,VWS V14.01,2013-03-27 10:03:00,
2013-03-27 05:05:00,26.6,13.4,28.64,NW,315,0.0,0.0,57,0.00,,---,0.00,VWS V14.01,2013-03-27 10:05:00,
2013-03-27 05:08:00,26.6,13.4,28.64,NW,315,0.0,0.0,57,0.00,,---,0.00,VWS V14.01,2013-03-27 10:08:00,
2013-03-27 05:10:00,26.4,13.3,28.67,NW,315,0.0,0.0,57,0.00,,---,0.00,VWS V14.01,2013-03-27 10:10:00,
2013-03-27 05:13:00,26.4,13.3,28.67,NW,315,0.0,0.0,57,0.00,,---,0.00,VWS V14.01,2013-03-27 10:13:00,
2013-03-27 05:15:00,26.4,13.3,28.67,NW,315,0.0,0.0,57,0.00,,---,0.00,VWS V14.01,2013-03-27 10:15:00,
2013-03-27 05:18:00,26.4,13.3,28.67,NW,315,0.0,0.0,57,0.00,,---,0.00,VWS V14.01,2013-03-27 10:18:00,
2013-03-27 05:20:00,26.2,13.1,28.67,NW,315,0.0,0.0,57,0.00,,---,0.00,VWS V14.01,2013-03-27 10:20:00,
2013-03-27 05:23:00,26.2,13.1,28.67,NW,315,0.0,0.0,57,0.00,,---,0.00,VWS V14.01,2013-03-27 10:23:00,
2013-03-27 05:25:00,26.2,13.1,28.67,NW,315,0.0,0.0,57,0.00,,---,0.00,VWS V14.01,2013-03-27 10:25:00,
2013-03-27 05:28:00,26.2,13.1,28.67,NW,315,0.0,0.0,57,0.00,,---,0.00,VWS V14.01,2013-03-27 10:28:00,
2013-03-27 05:29:00,26.2,13.1,28.67,NW,315,0.0,0.0,57,0.00,,---,0.00,VWS V14.01,2013-03-27 10:29:00,
2013-03-27 05:31:00,26.2,13.1,28.67,NW,315,0.0,0.0,57,0.00,,---,0.00,VWS V14.01,2013-03-27 10:31:00,
2013-03-27 05:33:00,26.2,13.5,28.67,NW,315,0.0,0.0,58,0.00,,---,0.00,VWS V14.01,2013-03-27 10:33:00,
2013-03-27 05:34:00,26.2,13.5,28.67,NW,315,0.0,0.0,58,0.00,,---,0.00,VWS V14.01,2013-03-27 10:34:00,
2013-03-27 05:37:00,26.2,13.5,28.67,NW,315,0.0,0.0,58,0.00,,---,0.00,VWS V14.01,2013-03-27 10:37:00,
2013-03-27 05:38:00,26.2,13.5,28.67,NW,315,0.0,0.0,58,0.00,,---,0.00,VWS V14.01,2013-03-27 10:38:00,
2013-03-27 05:39:00,26.2,13.5,28.67,NW,315,0.0,0.0,58,0.00,,---,0.00,VWS V14.01,2013-03-27 10:39:00,
2013-03-27 05:42:00,26.2,13.5,28.67,NW,315,0.0,0.0,58,0.00,,---,0.00,VWS V14.01,2013-03-27 10:42:00,
2013-03-27 05:43:00,26.2,13.5,28.67,NW,315,0.0,0.0,58,0.00,,---,0.00,VWS V14.01,2013-03-27 10:43:00,
2013-03-27 05:44:00,26.2,13.5,28.67,NW,315,0.0,0.0,58,0.00,,---,0.00,VWS V14.01,2013-03-27 10:44:00,
2013-03-27 05:47:00,26.2,13.5,28.67,NW,315,0.0,0.0,58,0.00,,---,0.00,VWS V14.01,2013-03-27 10:47:00,
2013-03-27 05:48:00,26.2,13.5,28.67,NW,315,0.0,0.0,58,0.00,,---,0.00,VWS V14.01,2013-03-27 10:48:00,
2013-03-27 05:49:00,26.2,13.5,28.67,NW,315,0.0,0.0,58,0.00,,---,0.00,VWS V14.01,2013-03-27 10:49:00,
2013-03-27 05:52:00,26.2,13.5,28.67,NW,315,0.0,0.0,58,0.00,,---,0.00,VWS V14.01,2013-03-27 10:52:00,
2013-03-27 05:54:00,26.2,13.5,28.67,NW,315,0.0,0.0,58,0.00,,---,0.00,VWS V14.01,2013-03-27 10:54:00,
2013-03-27 05:57:00,26.1,13.3,28.67,NW,315,0.0,0.0,58,0.00,,---,0.00,VWS V14.01,2013-03-27 10:57:00,
2013-03-27 05:59:00,26.1,13.3,28.67,NW,315,0.0,0.0,58,0.00,,---,0.00,VWS V14.01,2013-03-27 10:59:00,
2013-03-27 06:02:00,26.2,13.5,28.67,NW,315,0.0,0.0,58,0.00,,---,0.00,VWS V14.01,2013-03-27 11:02:00,
2013-03-27 06:04:00,26.2,13.5,28.67,NW,315,0.0,0.0,58,0.00,,---,0.00,VWS V14.01,2013-03-27 11:04:00,
2013-03-27 06:05:00,26.2,13.5,28.67,NW,315,0.0,0.0,58,0.00,,---,0.00,VWS V14.01,2013-03-27 11:05:00,
2013-03-27 06:07:00,26.2,13.5,28.67,NW,315,0.0,0.0,58,0.00,,---,0.00,VWS V14.01,2013-03-27 11:07:00,
2013-03-27 06:09:00,26.2,13.5,28.67,NW,315,0.0,0.0,58,0.00,,---,0.00,VWS V14.01,2013-03-27 11:09:00,
2013-03-27 06:10:00,26.2,13.5,28.67,NW,315,0.0,0.0,58,0.00,,---,0.00,VWS V14.01,2013-03-27 11:10:00,
2013-03-27 06:12:00,26.2,13.5,28.67,NW,315,0.0,0.0,58,0.00,,---,0.00,VWS V14.01,2013-03-27 11:12:00,
2013-03-27 06:14:00,26.2,13.5,28.67,NW,315,0.0,0.0,58,0.00,,---,0.00,VWS V14.01,2013-03-27 11:14:00,
2013-03-27 06:15:00,26.2,13.5,28.67,NW,315,0.0,0.0,58,0.00,,---,0.00,VWS V14.01,2013-03-27 11:15:00,
2013-03-27 06:17:00,26.2,13.5,28.67,NW,315,0.0,0.0,58,0.00,,---,0.00,VWS V14.01,2013-03-27 11:17:00,
2013-03-27 06:19:00,26.2,13.5,28.67,NW,315,0.0,0.0,58,0.00,,---,0.00,VWS V14.01,2013-03-27 11:19:00,
2013-03-27 06:20:00,26.2,13.5,28.67,NW,315,0.0,0.0,58,0.00,,---,0.00,VWS V14.01,2013-03-27 11:20:00,
2013-03-27 06:23:00,26.2,13.5,28.67,NW,315,0.0,0.0,58,0.00,,---,0.00,VWS V14.01,2013-03-27 11:23:00,
2013-03-27 06:24:00,26.2,13.5,28.67,NW,315,0.0,0.0,58,0.00,,---,0.00,VWS V14.01,2013-03-27 11:24:00,
2013-03-27 06:25:00,26.2,13.5,28.64,NW,315,0.0,0.0,58,0.00,,---,0.00,VWS V14.01,2013-03-27 11:25:00,
2013-03-27 06:28:00,26.2,13.5,28.64,NW,315,0.0,0.0,58,0.00,,---,0.00,VWS V14.01,2013-03-27 11:28:00,
2013-03-27 06:29:00,26.2,13.5,28.64,NW,315,0.0,0.0,58,0.00,,---,0.00,VWS V14.01,2013-03-27 11:29:00,
2013-03-27 06:30:00,26.6,13.8,28.64,NW,315,0.0,0.0,58,0.00,,---,0.00,VWS V14.01,2013-03-27 11:30:00,
2013-03-27 06:33:00,26.6,13.8,28.64,NW,315,0.0,0.0,58,0.00,,---,0.00,VWS V14.01,2013-03-27 11:33:00,
2013-03-27 06:34:00,26.6,13.8,28.64,NW,315,0.0,0.0,58,0.00,,---,0.00,VWS V14.01,2013-03-27 11:34:00,
2013-03-27 06:36:00,26.4,13.7,28.64,NW,315,0.0,0.0,58,0.00,,---,0.00,VWS V14.01,2013-03-27 11:36:00,
2013-03-27 06:38:00,26.4,13.7,28.64,NW,315,0.0,0.0,58,0.00,,---,0.00,VWS V14.01,2013-03-27 11:38:00,
2013-03-27 06:39:00,26.4,13.3,28.67,NW,315,0.0,0.0,57,0.00,,---,0.00,VWS V14.01,2013-03-27 11:39:00,
2013-03-27 06:41:00,26.4,13.3,28.67,NW,315,0.0,0.0,57,0.00,,---,0.00,VWS V14.01,2013-03-27 11:41:00,
2013-03-27 06:43:00,26.4,13.3,28.67,NW,315,0.0,0.0,57,0.00,,---,0.00,VWS V14.01,2013-03-27 11:43:00,
2013-03-27 06:44:00,26.4,13.3,28.67,NW,315,0.0,0.0,57,0.00,,---,0.00,VWS V14.01,2013-03-27 11:44:00,
2013-03-27 06:46:00,26.4,13.3,28.67,NW,315,0.0,0.0,57,0.00,,---,0.00,VWS V14.01,2013-03-27 11:46:00,
2013-03-27 06:48:00,26.4,13.3,28.67,NW,315,0.0,0.0,57,0.00,,---,0.00,VWS V14.01,2013-03-27 11:48:00,
2013-03-27 06:49:00,26.4,13.3,28.67,NW,315,0.0,0.0,57,0.00,,---,0.00,VWS V14.01,2013-03-27 11:49:00,
2013-03-27 06:51:00,26.4,13.3,28.67,NW,315,0.0,0.0,57,0.00,,---,0.00,VWS V14.01,2013-03-27 11:51:00,
2013-03-27 06:53:00,26.4,13.3,28.70,NW,315,0.0,0.0,57,0.00,,---,0.00,VWS V14.01,2013-03-27 11:53:00,
2013-03-27 06:54:00,26.4,13.3,28.70,NW,315,0.0,0.0,57,0.00,,---,0.00,VWS V14.01,2013-03-27 11:54:00,
2013-03-27 06:55:00,26.4,13.3,28.70,NW,315,0.0,0.0,57,0.00,,---,0.00,VWS V14.01,2013-03-27 11:55:00,
2013-03-27 06:56:00,26.6,13.4,28.70,NW,315,0.0,0.0,57,0.00,,---,0.00,VWS V14.01,2013-03-27 11:56:00,
2013-03-27 06:58:00,26.6,13.4,28.70,NW,315,0.0,0.0,57,0.00,,---,0.00,VWS V14.01,2013-03-27 11:58:00,
2013-03-27 06:59:00,26.6,13.4,28.70,NW,315,0.0,0.0,57,0.00,,---,0.00,VWS V14.01,2013-03-27 11:59:00,
2013-03-27 07:00:00,26.8,13.6,28.70,NW,315,0.0,0.0,57,0.00,,---,0.00,VWS V14.01,2013-03-27 12:00:00,
2013-03-27 07:01:00,26.8,13.6,28.70,NW,315,0.0,0.0,57,0.00,,---,0.00,VWS V14.01,2013-03-27 12:01:00,
2013-03-27 07:04:00,26.8,13.2,28.70,NW,315,0.0,0.0,56,0.00,,---,0.00,VWS V14.01,2013-03-27 12:04:00,
2013-03-27 07:05:00,27.0,13.4,28.70,NW,315,0.0,0.0,56,0.00,,---,0.00,VWS V14.01,2013-03-27 12:05:00,
2013-03-27 07:07:00,27.0,13.4,28.70,NW,315,0.0,0.0,56,0.00,,---,0.00,VWS V14.01,2013-03-27 12:07:00,
2013-03-27 07:09:00,27.0,13.4,28.70,NW,315,0.0,2.7,56,0.00,,---,0.00,VWS V14.01,2013-03-27 12:09:00,
2013-03-27 07:10:00,27.1,13.5,28.70,NW,315,0.0,0.0,56,0.00,,---,0.00,VWS V14.01,2013-03-27 12:10:00,
2013-03-27 07:12:00,27.3,14.1,28.70,NW,315,0.0,0.0,57,0.00,,---,0.00,VWS V14.01,2013-03-27 12:12:00,
2013-03-27 07:14:00,27.5,14.3,28.70,NW,315,0.0,0.0,57,0.00,,---,0.00,VWS V14.01,2013-03-27 12:14:00,
2013-03-27 07:15:00,27.5,14.3,28.70,NW,315,0.0,0.0,57,0.00,,---,0.00,VWS V14.01,2013-03-27 12:15:00,
2013-03-27 07:17:00,27.9,14.6,28.70,NW,315,0.0,0.0,57,0.00,,---,0.00,VWS V14.01,2013-03-27 12:17:00,
2013-03-27 07:19:00,27.9,14.6,28.70,NW,315,0.0,0.0,57,0.00,,---,0.00,VWS V14.01,2013-03-27 12:19:00,
2013-03-27 07:20:00,28.0,14.8,28.70,NW,315,0.0,0.0,57,0.00,,---,0.00,VWS V14.01,2013-03-27 12:20:00,
2013-03-27 07:22:00,28.2,15.0,28.70,NW,315,0.0,0.0,57,0.00,,---,0.00,VWS V14.01,2013-03-27 12:22:00,
2013-03-27 07:24:00,28.4,15.1,28.70,NW,315,0.0,0.0,57,0.00,,---,0.00,VWS V14.01,2013-03-27 12:24:00,
2013-03-27 07:25:00,28.4,15.1,28.70,NW,315,0.0,0.0,57,0.00,,---,0.00,VWS V14.01,2013-03-27 12:25:00,
2013-03-27 07:28:00,28.6,14.9,28.70,NW,314,0.0,0.0,56,0.00,,---,0.00,VWS V14.01,2013-03-27 12:28:00,
2013-03-27 07:29:00,28.6,14.9,28.70,NW,315,0.0,0.0,56,0.00,,---,0.00,VWS V14.01,2013-03-27 12:29:00,
2013-03-27 07:30:00,28.6,14.9,28.70,NW,315,0.0,0.0,56,0.00,,---,0.00,VWS V14.01,2013-03-27 12:30:00,
2013-03-27 07:33:00,28.8,15.1,28.70,NW,315,0.0,0.0,56,0.00,,---,0.00,VWS V14.01,2013-03-27 12:33:00,
2013-03-27 07:34:00,28.8,14.6,28.70,NW,315,0.0,0.0,55,0.00,,---,0.00,VWS V14.01,2013-03-27 12:34:00,
2013-03-27 07:35:00,28.8,14.6,28.70,NW,315,0.0,0.0,55,0.00,,---,0.00,VWS V14.01,2013-03-27 12:35:00,
2013-03-27 07:38:00,28.8,14.6,28.70,NW,315,0.0,0.0,55,0.00,,---,0.00,VWS V14.01,2013-03-27 12:38:00,
2013-03-27 07:40:00,28.8,14.6,28.70,NW,315,0.0,0.0,55,0.00,,---,0.00,VWS V14.01,2013-03-27 12:40:00,
2013-03-27 07:43:00,29.1,15.4,28.70,NW,315,0.0,0.0,56,0.00,,---,0.00,VWS V14.01,2013-03-27 12:43:00,
2013-03-27 07:45:00,29.5,15.7,28.70,NW,315,0.0,0.0,56,0.00,,---,0.00,VWS V14.01,2013-03-27 12:45:00,
2013-03-27 07:46:00,29.5,15.7,28.70,NW,315,0.0,0.0,56,0.00,,---,0.00,VWS V14.01,2013-03-27 12:46:00,
2013-03-27 07:48:00,30.2,17.2,28.70,NW,315,0.0,0.0,58,0.00,,---,0.00,VWS V14.01,2013-03-27 12:48:00,
2013-03-27 07:50:00,30.7,17.7,28.70,NW,315,0.0,0.0,58,0.00,,---,0.00,VWS V14.01,2013-03-27 12:50:00,
2013-03-27 07:51:00,30.7,17.7,28.70,NW,315,0.0,0.0,58,0.00,,---,0.00,VWS V14.01,2013-03-27 12:51:00,
2013-03-27 07:53:00,31.5,18.8,28.70,NW,315,0.0,0.0,59,0.00,,---,0.00,VWS V14.01,2013-03-27 12:53:00,
2013-03-27 07:55:00,31.5,18.8,28.70,NW,315,0.0,0.0,59,0.00,,---,0.00,VWS V14.01,2013-03-27 12:55:00,
2013-03-27 07:56:00,32.2,19.5,28.70,NW,315,0.0,0.0,59,0.00,,---,0.00,VWS V14.01,2013-03-27 12:56:00,
2013-03-27 07:59:00,32.5,19.8,28.70,NW,315,0.0,0.0,59,0.00,,---,0.00,VWS V14.01,2013-03-27 12:59:00,
2013-03-27 08:00:00,32.9,20.2,28.70,NW,315,0.0,0.0,59,0.00,,---,0.00,VWS V14.01,2013-03-27 13:00:00,
2013-03-27 08:01:00,32.9,20.2,28.70,NW,315,0.0,0.0,59,0.00,,---,0.00,VWS V14.01,2013-03-27 13:01:00,
2013-03-27 08:04:00,33.3,20.5,28.70,NW,315,0.0,0.0,59,0.00,,---,0.00,VWS V14.01,2013-03-27 13:04:00,
2013-03-27 08:05:00,33.6,20.8,28.70,NW,315,0.0,0.0,59,0.00,,---,0.00,VWS V14.01,2013-03-27 13:05:00,
2013-03-27 08:06:00,33.6,20.8,28.70,NW,315,0.0,0.0,59,0.00,,---,0.00,VWS V14.01,2013-03-27 13:06:00,
2013-03-27 08:09:00,34.7,21.9,28.70,NW,315,0.0,0.0,59,0.00,,---,0.00,VWS V14.01,2013-03-27 13:09:00,
2013-03-27 08:10:00,35.2,22.4,28.70,NW,315,0.0,0.0,59,0.00,,---,0.00,VWS V14.01,2013-03-27 13:10:00,
2013-03-27 08:11:00,35.4,22.1,28.70,NW,315,0.0,0.0,58,0.00,,---,0.00,VWS V14.01,2013-03-27 13:11:00,
2013-03-27 08:14:00,35.8,20.3,28.70,NW,313,2.7,2.7,53,0.00,,---,0.00,VWS V14.01,2013-03-27 13:14:00,
2013-03-27 08:16:00,36.3,19.9,28.70,NW,314,5.4,5.4,51,0.00,,---,0.00,VWS V14.01,2013-03-27 13:16:00,
2013-03-27 08:17:00,36.7,16.8,28.70,NW,313,4.9,4.9,44,0.00,,---,0.00,VWS V14.01,2013-03-27 13:17:00,
2013-03-27 08:19:00,37.6,16.6,28.70,West,279,2.7,2.7,42,0.00,,---,0.00,VWS V14.01,2013-03-27 13:19:00,
2013-03-27 08:21:00,37.6,16.6,28.70,West,259,0.0,0.0,42,0.00,,---,0.00,VWS V14.01,2013-03-27 13:21:00,
2013-03-27 08:22:00,38.3,17.8,28.70,WSW,257,2.7,2.7,43,0.00,,---,0.00,VWS V14.01,2013-03-27 13:22:00,
2013-03-27 08:24:00,38.7,17.0,28.70,NW,320,4.0,4.0,41,0.00,,---,0.00,VWS V14.01,2013-03-27 13:24:00,
2013-03-27 08:26:00,38.7,17.0,28.70,NNW,338,3.1,3.1,41,0.00,,---,0.00,VWS V14.01,2013-03-27 13:26:00,
2013-03-27 08:27:00,38.7,17.0,28.70,NW,322,2.7,3.6,41,0.00,,---,0.00,VWS V14.01,2013-03-27 13:27:00,
2013-03-27 08:29:00,39.7,16.8,28.73,NNW,337,5.4,5.4,39,0.00,,---,0.00,VWS V14.01,2013-03-27 13:29:00,
2013-03-27 08:31:00,40.1,16.5,28.73,NNW,345,4.0,5.4,38,0.00,,---,0.00,VWS V14.01,2013-03-27 13:31:00,
2013-03-27 08:32:00,40.3,16.7,28.73,NNW,345,4.0,5.4,38,0.00,,---,0.00,VWS V14.01,2013-03-27 13:32:00,
2013-03-27 08:33:00,40.3,16.7,28.73,NNW,340,5.4,5.4,38,0.00,,---,0.00,VWS V14.01,2013-03-27 13:33:00,
2013-03-27 08:34:00,40.5,15.6,28.73,NW,318,3.1,4.0,36,0.00,,---,0.00,VWS V14.01,2013-03-27 13:34:00,
2013-03-27 08:36:00,41.0,14.1,28.73,WNW,303,5.8,5.8,33,0.00,,---,0.00,VWS V14.01,2013-03-27 13:36:00,
2013-03-27 08:37:00,41.0,14.1,28.73,North,349,5.8,5.8,33,0.00,,---,0.00,VWS V14.01,2013-03-27 13:37:00,
2013-03-27 08:38:00,41.0,14.1,28.73,North,349,5.8,5.8,33,0.00,,---,0.00,VWS V14.01,2013-03-27 13:38:00,
2013-03-27 08:39:00,41.0,14.1,28.73,NW,324,5.8,5.8,33,0.00,,---,0.00,VWS V14.01,2013-03-27 13:39:00,
2013-03-27 08:42:00,41.2,14.3,28.73,North,353,4.0,4.0,33,0.00,,---,0.00,VWS V14.01,2013-03-27 13:42:00,
2013-03-27 08:43:00,41.2,14.3,28.73,North,353,4.0,4.0,33,0.00,,---,0.00,VWS V14.01,2013-03-27 13:43:00,
2013-03-27 08:44:00,41.7,15.4,28.73,NW,324,3.6,4.0,34,0.00,,---,0.00,VWS V14.01,2013-03-27 13:44:00,
2013-03-27 08:47:00,41.9,14.9,28.73,NNW,330,7.6,7.6,33,0.00,,---,0.00,VWS V14.01,2013-03-27 13:47:00,
2013-03-27 08:48:00,42.3,14.5,28.73,NNW,335,3.1,7.6,32,0.00,,---,0.00,VWS V14.01,2013-03-27 13:48:00,
2013-03-27 08:49:00,42.3,14.5,28.73,NNW,345,4.9,4.9,32,0.00,,---,0.00,VWS V14.01,2013-03-27 13:49:00,
2013-03-27 08:52:00,42.8,14.3,28.73,NNE,32,2.7,2.7,31,0.00,,---,0.00,VWS V14.01,2013-03-27 13:52:00,
2013-03-27 08:53:00,42.8,14.3,28.73,NNE,32,2.7,2.7,31,0.00,,---,0.00,VWS V14.01,2013-03-27 13:53:00,
2013-03-27 08:54:00,43.3,14.8,28.73,North,349,5.4,5.4,31,0.00,,---,0.00,VWS V14.01,2013-03-27 13:54:00,
2013-03-27 08:57:00,43.5,14.2,28.73,NW,322,4.0,4.0,30,0.00,,---,0.00,VWS V14.01,2013-03-27 13:57:00,
2013-03-27 08:58:00,43.5,14.2,28.73,NW,322,4.0,4.0,30,0.00,,---,0.00,VWS V14.01,2013-03-27 13:58:00,
2013-03-27 08:59:00,43.7,14.3,28.73,NNW,338,3.1,3.1,30,0.00,,---,0.00,VWS V14.01,2013-03-27 13:59:00,
2013-03-27 09:03:00,43.9,13.7,28.73,NNW,341,3.1,5.8,29,0.00,,---,0.00,VWS V14.01,2013-03-27 14:03:00,
2013-03-27 09:05:00,43.9,13.7,28.73,SW,224,2.7,3.6,29,0.00,,---,0.00,VWS V14.01,2013-03-27 14:05:00,
2013-03-27 09:08:00,44.2,14.0,28.73,NNW,342,5.8,5.8,29,0.00,,---,0.00,VWS V14.01,2013-03-27 14:08:00,
2013-03-27 09:10:00,44.2,14.0,28.73,SW,224,3.6,4.0,29,0.00,,---,0.00,VWS V14.01,2013-03-27 14:10:00,
2013-03-27 09:13:00,44.8,13.7,28.73,NNE,12,4.9,6.3,28,0.00,,---,0.00,VWS V14.01,2013-03-27 14:13:00,
2013-03-27 09:15:00,44.8,13.7,28.73,North,353,3.1,3.1,28,0.00,,---,0.00,VWS V14.01,2013-03-27 14:15:00,
2013-03-27 09:18:00,45.7,14.5,28.73,NNW,329,5.8,5.8,28,0.00,,---,0.00,VWS V14.01,2013-03-27 14:18:00,
2013-03-27 09:19:00,45.7,14.5,28.73,North,3,3.1,5.8,28,0.00,,---,0.00,VWS V14.01,2013-03-27 14:19:00,
2013-03-27 09:20:00,46.0,14.8,28.73,North,3,3.1,3.1,28,0.00,,---,0.00,VWS V14.01,2013-03-27 14:20:00,
2013-03-27 09:23:00,46.0,14.8,28.73,WNW,297,4.0,4.0,28,0.00,,---,0.00,VWS V14.01,2013-03-27 14:23:00,
2013-03-27 09:24:00,46.0,14.8,28.73,WNW,297,4.0,4.0,28,0.00,,---,0.00,VWS V14.01,2013-03-27 14:24:00,
2013-03-27 09:25:00,46.2,14.9,28.73,NNW,330,5.4,5.4,28,0.00,,---,0.00,VWS V14.01,2013-03-27 14:25:00,
2013-03-27 09:28:00,46.8,14.6,28.73,WNW,297,3.6,3.6,27,0.00,,---,0.00,VWS V14.01,2013-03-27 14:28:00,
2013-03-27 09:29:00,46.8,14.6,28.73,NNE,12,3.1,3.6,27,0.00,,---,0.00,VWS V14.01,2013-03-27 14:29:00,
2013-03-27 09:30:00,46.8,14.6,28.73,NNW,344,5.8,7.2,27,0.00,,---,0.00,VWS V14.01,2013-03-27 14:30:00,
2013-03-27 09:33:00,46.8,14.6,28.73,North,7,0.0,6.3,27,0.00,,---,0.00,VWS V14.01,2013-03-27 14:33:00,
2013-03-27 09:34:00,46.8,14.6,28.73,NW,313,5.8,5.8,27,0.00,,---,0.00,VWS V14.01,2013-03-27 14:34:00,
2013-03-27 09:35:00,47.1,14.9,28.73,NNW,331,5.4,5.4,27,0.00,,---,0.00,VWS V14.01,2013-03-27 14:35:00,
2013-03-27 09:38:00,46.9,14.7,28.73,NE,39,5.4,5.4,27,0.00,,---,0.00,VWS V14.01,2013-03-27 14:38:00,
2013-03-27 09:39:00,46.9,14.7,28.73,NE,39,5.4,5.4,27,0.00,,---,0.00,VWS V14.01,2013-03-27 14:39:00,
2013-03-27 09:40:00,47.1,14.9,28.73,NE,49,2.7,2.7,27,0.00,,---,0.00,VWS V14.01,2013-03-27 14:40:00,
2013-03-27 09:43:00,47.5,15.2,28.73,NNW,339,8.1,8.1,27,0.00,,---,0.00,VWS V14.01,2013-03-27 14:43:00,
2013-03-27 09:44:00,47.5,12.5,28.73,NNW,339,8.1,8.1,24,0.00,,---,0.00,VWS V14.01,2013-03-27 14:44:00,
2013-03-27 09:45:00,47.8,15.5,28.73,NNW,338,5.4,5.4,27,0.00,,---,0.00,VWS V14.01,2013-03-27 14:45:00,
2013-03-27 09:48:00,48.0,13.0,28.73,North,10,6.3,6.3,24,0.00,,---,0.00,VWS V14.01,2013-03-27 14:48:00,
2013-03-27 09:49:00,48.2,14.9,28.73,North,10,6.3,6.3,26,0.00,,---,0.00,VWS V14.01,2013-03-27 14:49:00,
2013-03-27 09:50:00,48.0,13.0,28.73,North,10,6.3,6.3,24,0.00,,---,0.00,VWS V14.01,2013-03-27 14:50:00,
2013-03-27 09:53:00,48.2,13.1,28.73,NNW,338,4.9,4.9,24,0.00,,---,0.00,VWS V14.01,2013-03-27 14:53:00,
2013-03-27 09:54:00,48.2,13.1,28.73,NNW,340,8.1,8.1,24,0.00,,---,0.00,VWS V14.01,2013-03-27 14:54:00,
2013-03-27 09:55:00,48.2,13.1,28.73,NNE,18,4.0,4.0,24,0.00,,---,0.00,VWS V14.01,2013-03-27 14:55:00,
2013-03-27 09:59:00,48.4,13.3,28.73,NW,320,6.3,6.3,24,0.00,,---,0.00,VWS V14.01,2013-03-27 14:59:00,
2013-03-27 10:00:00,48.4,13.3,28.73,NNW,344,8.7,10.5,24,0.00,,---,0.00,VWS V14.01,2013-03-27 15:00:00,
2013-03-27 10:01:00,48.4,10.3,28.73,NW,321,3.1,8.7,21,0.00,,---,0.00,VWS V14.01,2013-03-27 15:01:00,
2013-03-27 10:04:00,48.7,13.6,28.73,NNW,346,7.6,7.6,24,0.00,,---,0.00,VWS V14.01,2013-03-27 15:04:00,
2013-03-27 10:05:00,48.9,10.7,28.73,NW,314,5.8,5.8,21,0.00,,---,0.00,VWS V14.01,2013-03-27 15:05:00,
2013-03-27 10:06:00,48.9,10.7,28.73,NNW,341,6.7,6.7,21,0.00,,---,0.00,VWS V14.01,2013-03-27 15:06:00,
2013-03-27 10:09:00,49.3,14.0,28.73,NW,311,8.7,8.7,24,0.00,,---,0.00,VWS V14.01,2013-03-27 15:09:00,
2013-03-27 10:10:00,49.3,11.0,28.73,NW,311,8.7,8.7,21,0.00,,---,0.00,VWS V14.01,2013-03-27 15:10:00,
2013-03-27 10:11:00,49.3,14.0,28.73,NNE,19,4.0,8.7,24,0.00,,---,0.00,VWS V14.01,2013-03-27 15:11:00,
2013-03-27 10:14:00,49.6,11.3,28.73,NW,323,5.4,5.4,21,0.00,,---,0.00,VWS V14.01,2013-03-27 15:14:00,
2013-03-27 10:15:00,49.6,11.3,28.73,North,357,6.3,6.3,21,0.00,,---,0.00,VWS V14.01,2013-03-27 15:15:00,
2013-03-27 10:17:00,49.3,11.0,28.73,WNW,286,3.1,3.6,21,0.00,,---,0.00,VWS V14.01,2013-03-27 15:17:00,
2013-03-27 10:19:00,49.1,10.9,28.73,NNW,331,5.8,5.8,21,0.00,,---,0.00,VWS V14.01,2013-03-27 15:19:00,
2013-03-27 10:20:00,49.3,11.0,28.73,NNW,335,8.7,8.7,21,0.00,,---,0.00,VWS V14.01,2013-03-27 15:20:00,
2013-03-27 10:22:00,49.1,10.9,28.73,NNW,344,8.7,8.7,21,0.00,,---,0.00,VWS V14.01,2013-03-27 15:22:00,
2013-03-27 10:24:00,49.5,11.2,28.73,NNW,336,7.2,7.2,21,0.00,,---,0.00,VWS V14.01,2013-03-27 15:24:00,
2013-03-27 10:25:00,49.3,11.0,28.73,NW,317,6.3,7.2,21,0.00,,---,0.00,VWS V14.01,2013-03-27 15:25:00,
2013-03-27 10:27:00,49.5,11.2,28.73,NW,305,5.4,6.7,21,0.00,,---,0.00,VWS V14.01,2013-03-27 15:27:00,
2013-03-27 10:29:00,49.8,11.5,28.73,North,2,5.8,5.8,21,0.00,,---,0.00,VWS V14.01,2013-03-27 15:29:00,
2013-03-27 10:30:00,49.8,11.5,28.73,North,11,8.1,8.1,21,0.00,,---,0.00,VWS V14.01,2013-03-27 15:30:00,
2013-03-27 10:32:00,50.0,11.6,28.73,North,357,7.6,7.6,21,0.00,,---,0.00,VWS V14.01,2013-03-27 15:32:00,
2013-03-27 10:34:00,50.2,11.8,28.73,NNW,334,6.3,6.3,21,0.00,,---,0.00,VWS V14.01,2013-03-27 15:34:00,
2013-03-27 10:35:00,50.2,11.8,28.73,NW,322,5.4,5.4,21,0.00,,---,0.00,VWS V14.01,2013-03-27 15:35:00,
2013-03-27 10:38:00,50.5,12.1,28.73,North,8,5.8,6.3,21,0.00,,---,0.00,VWS V14.01,2013-03-27 15:38:00,
2013-03-27 10:39:00,50.9,12.4,28.73,NW,314,8.1,8.1,21,0.00,,---,0.00,VWS V14.01,2013-03-27 15:39:00,
2013-03-27 10:40:00,51.1,12.5,28.73,NW,314,8.1,8.1,21,0.00,,---,0.00,VWS V14.01,2013-03-27 15:40:00,
2013-03-27 10:42:00,51.1,12.5,28.73,WSW,238,3.6,3.6,21,0.00,,---,0.00,VWS V14.01,2013-03-27 15:42:00,
2013-03-27 10:43:00,51.1,12.5,28.73,NW,325,8.7,8.7,21,0.00,,---,0.00,VWS V14.01,2013-03-27 15:43:00,
2013-03-27 10:44:00,51.4,10.6,28.73,NW,315,7.6,7.6,19,0.00,,---,0.00,VWS V14.01,2013-03-27 15:44:00,
2013-03-27 10:45:00,51.1,10.3,28.73,NW,315,7.6,7.6,19,0.00,,---,0.00,VWS V14.01,2013-03-27 15:45:00,
2013-03-27 10:47:00,50.7,10.0,28.73,WNW,294,3.6,6.3,19,0.00,,---,0.00,VWS V14.01,2013-03-27 15:47:00,
2013-03-27 10:48:00,50.5,9.8,28.73,ESE,107,5.4,5.4,19,0.00,,---,0.00,VWS V14.01,2013-03-27 15:48:00,
2013-03-27 10:49:00,49.8,9.2,28.73,North,353,6.3,10.5,19,0.00,,---,0.00,VWS V14.01,2013-03-27 15:49:00,
2013-03-27 10:51:00,49.5,8.9,28.73,NNW,333,8.7,8.7,19,0.00,,---,0.00,VWS V14.01,2013-03-27 15:51:00,
2013-03-27 10:52:00,49.8,11.5,28.73,NNW,333,8.7,8.7,21,0.00,,---,0.00,VWS V14.01,2013-03-27 15:52:00,
2013-03-27 10:53:00,49.6,9.1,28.73,NNW,333,8.7,8.7,19,0.00,,---,0.00,VWS V14.01,2013-03-27 15:53:00,
2013-03-27 10:55:00,50.0,9.4,28.73,NNW,343,0.0,0.0,19,0.00,,---,0.00,VWS V14.01,2013-03-27 15:55:00,
2013-03-27 10:56:00,50.5,12.1,28.73,ENE,74,2.7,2.7,21,0.00,,---,0.00,VWS V14.01,2013-03-27 15:56:00,
2013-03-27 10:57:00,50.9,12.4,28.73,NE,48,3.1,3.1,21,0.00,,---,0.00,VWS V14.01,2013-03-27 15:57:00,
2013-03-27 10:58:00,50.9,10.1,28.73,NW,314,9.2,9.2,19,0.00,,---,0.00,VWS V14.01,2013-03-27 15:58:00,
2013-03-27 11:00:00,50.9,10.1,28.73,NNW,341,6.3,8.3,19,0.00,,---,0.00,VWS V14.01,2013-03-27 16:00:00,
2013-03-27 11:01:00,50.9,10.1,28.73,North,4,5.8,5.8,19,0.00,,---,0.00,VWS V14.01,2013-03-27 16:01:00,
2013-03-27 11:02:00,50.9,10.1,28.73,North,357,8.3,8.3,19,0.00,,---,0.00,VWS V14.01,2013-03-27 16:02:00,
2013-03-27 11:03:00,51.6,13.0,28.73,NE,36,0.0,8.3,21,0.00,,---,0.00,VWS V14.01,2013-03-27 16:03:00,
2013-03-27 11:05:00,51.6,13.0,28.73,North,8,4.0,4.9,21,0.00,,---,0.00,VWS V14.01,2013-03-27 16:05:00,
2013-03-27 11:06:00,52.3,13.6,28.73,ENE,60,4.9,4.9,21,0.00,,---,0.00,VWS V14.01,2013-03-27 16:06:00,
2013-03-27 11:07:00,52.3,13.6,28.73,ENE,60,4.9,4.9,21,0.00,,---,0.00,VWS V14.01,2013-03-27 16:07:00,
2013-03-27 11:08:00,52.3,13.6,28.73,ENE,60,4.9,4.9,21,0.00,,---,0.00,VWS V14.01,2013-03-27 16:08:00,
2013-03-27 11:10:00,52.9,10.6,28.73,NNE,19,5.8,5.8,18,0.00,,---,0.00,VWS V14.01,2013-03-27 16:10:00,
2013-03-27 11:12:00,53.1,14.2,28.73,ENE,59,0.0,0.0,21,0.00,,---,0.00,VWS V14.01,2013-03-27 16:12:00,
2013-03-27 11:13:00,53.2,14.3,28.73,ENE,59,0.0,0.0,21,0.00,,---,0.00,VWS V14.01,2013-03-27 16:13:00,
2013-03-27 11:15:00,53.6,11.1,28.73,ENE,59,0.0,0.0,18,0.00,,---,0.00,VWS V14.01,2013-03-27 16:15:00,
2013-03-27 11:17:00,53.4,11.0,28.73,ENE,59,0.0,0.0,18,0.00,,---,0.00,VWS V14.01,2013-03-27 16:17:00,
2013-03-27 11:18:00,53.4,11.0,28.73,NW,316,3.6,4.0,18,0.00,,---,0.00,VWS V14.01,2013-03-27 16:18:00,
2013-03-27 11:20:00,52.5,10.2,28.73,NW,320,5.8,5.8,18,0.00,,---,0.00,VWS V14.01,2013-03-27 16:20:00,
2013-03-27 11:22:00,52.5,10.2,28.73,NW,314,3.6,6.3,18,0.00,,---,0.00,VWS V14.01,2013-03-27 16:22:00,
2013-03-27 11:23:00,52.5,10.2,28.73,NW,314,3.6,3.6,18,0.00,,---,0.00,VWS V14.01,2013-03-27 16:23:00,
2013-03-27 11:25:00,53.1,10.7,28.73,West,261,2.7,2.7,18,0.00,,---,0.00,VWS V14.01,2013-03-27 16:25:00,
2013-03-27 11:27:00,53.8,13.7,28.73,West,278,3.6,3.6,20,0.00,,---,0.00,VWS V14.01,2013-03-27 16:27:00,
2013-03-27 11:28:00,54.0,11.4,28.73,NNW,342,5.8,5.8,18,0.00,,---,0.00,VWS V14.01,2013-03-27 16:28:00,
2013-03-27 11:29:00,54.0,11.4,28.73,NNE,13,2.7,5.8,18,0.00,,---,0.00,VWS V14.01,2013-03-27 16:29:00,
2013-03-27 11:30:00,54.0,11.4,28.73,North,357,4.9,4.9,18,0.00,,---,0.00,VWS V14.01,2013-03-27 16:30:00,
2013-03-27 11:32:00,54.1,11.6,28.73,WSW,243,0.0,0.0,18,0.00,,---,0.00,VWS V14.01,2013-03-27 16:32:00,
2013-03-27 11:33:00,54.1,11.6,28.73,NW,320,4.9,7.6,18,0.00,,---,0.00,VWS V14.01,2013-03-27 16:33:00,
2013-03-27 11:34:00,54.1,11.6,28.73,NW,320,4.9,4.9,18,0.00,,---,0.00,VWS V14.01,2013-03-27 16:34:00,
2013-03-27 11:35:00,54.3,11.7,28.73,NW,320,4.9,4.9,18,0.00,,---,0.00,VWS V14.01,2013-03-27 16:35:00,
2013-03-27 11:37:00,53.8,7.2,28.73,NNW,337,5.4,5.4,15,0.00,,---,0.00,VWS V14.01,2013-03-27 16:37:00,
2013-03-27 11:38:00,53.4,11.0,28.73,NNW,337,5.4,5.4,18,0.00,,---,0.00,VWS V14.01,2013-03-27 16:38:00,
2013-03-27 11:39:00,53.4,11.0,28.73,NNE,12,2.2,2.2,18,0.00,,---,0.00,VWS V14.01,2013-03-27 16:39:00,
2013-03-27 11:40:00,53.1,10.7,28.73,NNE,12,0.0,2.2,18,0.00,,---,0.00,VWS V14.01,2013-03-27 16:40:00,
2013-03-27 11:42:00,53.1,10.7,28.73,NW,317,3.6,3.6,18,0.00,,---,0.00,VWS V14.01,2013-03-27 16:42:00,
2013-03-27 11:44:00,53.1,10.7,28.73,NW,307,12.3,12.3,18,0.00,,---,0.00,VWS V14.01,2013-03-27 16:44:00,
2013-03-27 11:45:00,53.2,10.9,28.73,NW,307,12.3,12.3,18,0.00,,---,0.00,VWS V14.01,2013-03-27 16:45:00,
2013-03-27 11:47:00,53.4,11.0,28.73,SSE,168,2.2,2.2,18,0.00,,---,0.00,VWS V14.01,2013-03-27 16:47:00,
2013-03-27 11:49:00,53.4,11.0,28.73,SSE,168,2.2,2.2,18,0.00,,---,0.00,VWS V14.01,2013-03-27 16:49:00,
2013-03-27 11:50:00,53.1,8.1,28.73,SSE,168,2.2,2.2,16,0.00,,---,0.00,VWS V14.01,2013-03-27 16:50:00,
2013-03-27 11:52:00,53.1,8.1,28.73,ENE,68,2.7,2.7,16,0.00,,---,0.00,VWS V14.01,2013-03-27 16:52:00,
2013-03-27 11:54:00,54.1,11.6,28.73,NE,34,3.1,3.1,18,0.00,,---,0.00,VWS V14.01,2013-03-27 16:54:00,
2013-03-27 11:55:00,54.5,11.9,28.73,WSW,255,5.8,5.8,18,0.00,,---,0.00,VWS V14.01,2013-03-27 16:55:00,
2013-03-27 11:58:00,55.4,11.3,28.73,WSW,255,5.8,5.8,17,0.00,,---,0.00,VWS V14.01,2013-03-27 16:58:00,
2013-03-27 11:59:00,55.4,11.3,28.73,WSW,255,5.8,5.8,17,0.00,,---,0.00,VWS V14.01,2013-03-27 16:59:00,
2013-03-27 12:00:00,55.4,11.3,28.73,NW,315,3.1,3.1,17,0.00,,---,0.00,VWS V14.01,2013-03-27 17:00:00,
2013-03-27 12:01:00,55.4,11.3,28.73,NW,315,3.1,3.1,17,0.00,,---,0.00,VWS V14.01,2013-03-27 17:01:00,
2013-03-27 12:03:00,55.4,11.3,28.73,North,357,2.7,3.1,17,0.00,,---,0.00,VWS V14.01,2013-03-27 17:03:00,
2013-03-27 12:04:00,55.4,11.3,28.73,North,353,5.4,5.4,17,0.00,,---,0.00,VWS V14.01,2013-03-27 17:04:00,
2013-03-27 12:05:00,55.4,11.3,28.73,North,353,5.4,5.4,17,0.00,,---,0.00,VWS V14.01,2013-03-27 17:05:00,
2013-03-27 12:06:00,55.4,11.3,28.73,NNW,329,8.1,8.1,17,0.00,,---,0.00,VWS V14.01,2013-03-27 17:06:00,
2013-03-27 12:08:00,56.3,9.3,28.73,North,3,4.0,5.8,15,0.00,,---,0.00,VWS V14.01,2013-03-27 17:08:00,
2013-03-27 12:09:00,56.1,9.1,28.73,NNE,20,5.8,5.8,15,0.00,,---,0.00,VWS V14.01,2013-03-27 17:09:00,
2013-03-27 12:10:00,56.1,9.1,28.73,NNE,20,5.8,5.8,15,0.00,,---,0.00,VWS V14.01,2013-03-27 17:10:00,
2013-03-27 12:11:00,56.1,11.9,28.73,NNE,20,5.8,5.8,17,0.00,,---,0.00,VWS V14.01,2013-03-27 17:11:00,
2013-03-27 12:13:00,56.1,11.9,28.73,NNW,331,2.7,8.1,17,0.00,,---,0.00,VWS V14.01,2013-03-27 17:13:00,
2013-03-27 12:14:00,56.1,11.9,28.73,NNW,331,2.7,2.7,17,0.00,,---,0.00,VWS V14.01,2013-03-27 17:14:00,
2013-03-27 12:16:00,55.9,9.0,28.73,North,357,0.0,2.7,15,0.00,,---,0.00,VWS V14.01,2013-03-27 17:16:00,
2013-03-27 12:17:00,55.9,9.0,28.73,WSW,243,3.6,3.6,15,0.00,,---,0.00,VWS V14.01,2013-03-27 17:17:00,
2013-03-27 12:18:00,55.9,9.0,28.73,SSW,203,0.0,0.0,15,0.00,,---,0.00,VWS V14.01,2013-03-27 17:18:00,
2013-03-27 12:19:00,56.1,11.9,28.73,East,98,2.7,2.7,17,0.00,,---,0.00,VWS V14.01,2013-03-27 17:19:00,
2013-03-27 12:21:00,56.1,11.9,28.73,NW,322,4.0,4.0,17,0.00,,---,0.00,VWS V14.01,2013-03-27 17:21:00,
2013-03-27 12:22:00,56.1,11.9,28.73,NW,322,4.0,4.0,17,0.00,,---,0.00,VWS V14.01,2013-03-27 17:22:00,
2013-03-27 12:23:00,56.1,11.9,28.73,NW,322,4.0,4.0,17,0.00,,---,0.00,VWS V14.01,2013-03-27 17:23:00,
2013-03-27 12:25:00,55.2,8.4,28.73,NNW,331,5.4,5.4,15,0.00,,---,0.00,VWS V14.01,2013-03-27 17:25:00,
2013-03-27 12:27:00,55.8,8.8,28.73,WNW,285,4.9,4.9,15,0.00,,---,0.00,VWS V14.01,2013-03-27 17:27:00,
2013-03-27 12:28:00,55.8,8.8,28.73,WNW,285,4.9,4.9,15,0.00,,---,0.00,VWS V14.01,2013-03-27 17:28:00,
2013-03-27 12:30:00,55.8,8.8,28.73,NW,322,4.0,6.3,15,0.00,,---,0.00,VWS V14.01,2013-03-27 17:30:00,
2013-03-27 12:32:00,55.6,8.7,28.73,NW,322,4.0,4.0,15,0.00,,---,0.00,VWS V14.01,2013-03-27 17:32:00,
2013-03-27 12:33:00,55.4,8.5,28.73,North,0,3.6,4.0,15,0.00,,---,0.00,VWS V14.01,2013-03-27 17:33:00,
2013-03-27 12:35:00,54.9,8.1,28.73,NW,318,6.3,6.3,15,0.00,,---,0.00,VWS V14.01,2013-03-27 17:35:00,
2013-03-27 12:37:00,55.6,11.5,28.73,West,279,4.9,4.9,17,0.00,,---,0.00,VWS V14.01,2013-03-27 17:37:00,
2013-03-27 12:38:00,55.9,9.0,28.73,NNE,15,3.1,3.1,15,0.00,,---,0.00,VWS V14.01,2013-03-27 17:38:00,
2013-03-27 12:40:00,55.6,8.7,28.73,NW,308,8.1,8.1,15,0.00,,---,0.00,VWS V14.01,2013-03-27 17:40:00,
2013-03-27 12:42:00,55.8,8.8,28.70,NNW,346,6.3,7.6,15,0.00,,---,0.00,VWS V14.01,2013-03-27 17:42:00,
2013-03-27 12:43:00,55.8,8.8,28.70,North,353,10.1,10.1,15,0.00,,---,0.00,VWS V14.01,2013-03-27 17:43:00,
2013-03-27 12:45:00,55.8,8.8,28.70,North,353,10.1,10.1,15,0.00,,---,0.00,VWS V14.01,2013-03-27 17:45:00,
2013-03-27 12:47:00,55.8,8.8,28.70,NE,41,3.1,5.8,15,0.00,,---,0.00,VWS V14.01,2013-03-27 17:47:00,
2013-03-27 12:48:00,55.4,8.5,28.70,NE,41,3.1,3.1,15,0.00,,---,0.00,VWS V14.01,2013-03-27 17:48:00,
2013-03-27 12:49:00,54.5,7.8,28.70,NE,41,3.1,3.1,15,0.00,,---,0.00,VWS V14.01,2013-03-27 17:49:00,
2013-03-27 12:50:00,54.5,7.8,28.70,ENE,70,3.6,3.6,15,0.00,,---,0.00,VWS V14.01,2013-03-27 17:50:00,
2013-03-27 12:52:00,54.5,7.8,28.70,West,275,2.2,2.2,15,0.00,,---,0.00,VWS V14.01,2013-03-27 17:52:00,
2013-03-27 12:53:00,54.5,7.8,28.70,West,275,2.2,2.2,15,0.00,,---,0.00,VWS V14.01,2013-03-27 17:53:00,
2013-03-27 12:54:00,54.5,7.8,28.70,ENE,61,0.0,0.0,15,0.00,,---,0.00,VWS V14.01,2013-03-27 17:54:00,
2013-03-27 12:56:00,55.2,8.4,28.70,NNW,333,2.2,2.2,15,0.00,,---,0.00,VWS V14.01,2013-03-27 17:56:00,
2013-03-27 12:58:00,55.2,8.4,28.70,NW,310,0.0,0.0,15,0.00,,---,0.00,VWS V14.01,2013-03-27 17:58:00,
2013-03-27 12:59:00,56.3,9.3,28.70,NE,40,2.7,2.7,15,0.00,,---,0.00,VWS V14.01,2013-03-27 17:59:00,
2013-03-27 13:01:00,56.3,9.3,28.70,NW,305,2.7,2.7,15,0.00,,---,0.00,VWS V14.01,2013-03-27 18:01:00,
2013-03-27 13:03:00,57.0,9.8,28.70,NW,308,4.0,4.0,15,0.00,,---,0.00,VWS V14.01,2013-03-27 18:03:00,
2013-03-27 13:04:00,57.6,8.7,28.70,NW,308,4.0,4.0,14,0.00,,---,0.00,VWS V14.01,2013-03-27 18:04:00,
2013-03-27 13:06:00,57.6,8.7,28.70,WSW,256,3.1,3.1,14,0.00,,---,0.00,VWS V14.01,2013-03-27 18:06:00,
2013-03-27 13:08:00,57.6,8.7,28.70,West,265,2.7,2.7,14,0.00,,---,0.00,VWS V14.01,2013-03-27 18:08:00,
2013-03-27 13:09:00,57.9,9.0,28.70,West,265,0.0,0.0,14,0.00,,---,0.00,VWS V14.01,2013-03-27 18:09:00,
2013-03-27 13:11:00,57.9,9.0,28.70,NW,312,7.6,7.6,14,0.00,,---,0.00,VWS V14.01,2013-03-27 18:11:00,
2013-03-27 13:13:00,58.1,9.2,28.70,West,271,8.1,8.1,14,0.00,,---,0.00,VWS V14.01,2013-03-27 18:13:00,
2013-03-27 13:14:00,58.1,9.2,28.70,North,4,2.7,8.1,14,0.00,,---,0.00,VWS V14.01,2013-03-27 18:14:00,
2013-03-27 13:17:00,57.4,8.6,28.70,WNW,303,2.7,2.7,14,0.00,,---,0.00,VWS V14.01,2013-03-27 18:17:00,
2013-03-27 13:18:00,57.6,8.7,28.70,WNW,303,2.7,2.7,14,0.00,,---,0.00,VWS V14.01,2013-03-27 18:18:00,
2013-03-27 13:19:00,57.6,8.7,28.70,WNW,303,2.7,2.7,14,0.00,,---,0.00,VWS V14.01,2013-03-27 18:19:00,
2013-03-27 13:23:00,57.6,8.7,28.70,NW,318,4.0,4.0,14,0.00,,---,0.00,VWS V14.01,2013-03-27 18:23:00,
2013-03-27 13:24:00,57.6,8.7,28.70,NW,318,4.0,4.0,14,0.00,,---,0.00,VWS V14.01,2013-03-27 18:24:00,
2013-03-27 13:25:00,57.7,8.9,28.70,NW,318,4.0,4.0,14,0.00,,---,0.00,VWS V14.01,2013-03-27 18:25:00,
2013-03-27 13:28:00,57.7,8.9,28.70,NW,319,3.1,3.1,14,0.00,,---,0.00,VWS V14.01,2013-03-27 18:28:00,
2013-03-27 13:29:00,57.7,8.9,28.70,NW,319,3.1,3.1,14,0.00,,---,0.00,VWS V14.01,2013-03-27 18:29:00,
2013-03-27 13:30:00,57.7,8.9,28.70,NW,319,3.1,3.1,14,0.00,,---,0.00,VWS V14.01,2013-03-27 18:30:00,
2013-03-27 13:33:00,57.7,8.9,28.70,West,268,0.0,0.0,14,0.00,,---,0.00,VWS V14.01,2013-03-27 18:33:00,
2013-03-27 13:34:00,57.9,9.0,28.70,West,268,0.0,0.0,14,0.00,,---,0.00,VWS V14.01,2013-03-27 18:34:00,
2013-03-27 13:35:00,57.4,8.6,28.70,WNW,292,6.3,7.6,14,0.00,,---,0.00,VWS V14.01,2013-03-27 18:35:00,
2013-03-27 13:38:00,57.6,8.7,28.70,NW,317,2.2,2.2,14,0.00,,---,0.00,VWS V14.01,2013-03-27 18:38:00,
2013-03-27 13:39:00,57.2,8.4,28.70,SSE,164,4.0,10.5,14,0.00,,---,0.00,VWS V14.01,2013-03-27 18:39:00,
2013-03-27 13:40:00,57.2,8.4,28.70,NW,320,3.6,3.6,14,0.00,,---,0.00,VWS V14.01,2013-03-27 18:40:00,
2013-03-27 13:43:00,56.8,9.7,28.67,NNW,340,5.4,5.4,15,0.00,,---,0.00,VWS V14.01,2013-03-27 18:43:00,
2013-03-27 13:44:00,56.8,9.7,28.67,NNW,340,5.4,5.4,15,0.00,,---,0.00,VWS V14.01,2013-03-27 18:44:00,
2013-03-27 13:45:00,56.7,9.6,28.67,NNW,340,5.4,5.4,15,0.00,,---,0.00,VWS V14.01,2013-03-27 18:45:00,
2013-03-27 13:48:00,56.3,9.3,28.67,WNW,300,4.9,4.9,15,0.00,,---,0.00,VWS V14.01,2013-03-27 18:48:00,
2013-03-27 13:49:00,56.3,9.3,28.67,NNE,12,6.3,6.3,15,0.00,,---,0.00,VWS V14.01,2013-03-27 18:49:00,
2013-03-27 13:50:00,56.1,9.1,28.67,West,274,3.6,6.3,15,0.00,,---,0.00,VWS V14.01,2013-03-27 18:50:00,
2013-03-27 13:53:00,56.7,9.6,28.67,North,353,3.1,3.1,15,0.00,,---,0.00,VWS V14.01,2013-03-27 18:53:00,
2013-03-27 13:54:00,56.7,9.6,28.67,North,353,3.1,3.1,15,0.00,,---,0.00,VWS V14.01,2013-03-27 18:54:00,
2013-03-27 13:55:00,56.7,9.6,28.67,North,3,6.3,6.3,15,0.00,,---,0.00,VWS V14.01,2013-03-27 18:55:00,
2013-03-27 13:58:00,56.8,9.7,28.67,NNW,331,0.0,3.6,15,0.00,,---,0.00,VWS V14.01,2013-03-27 18:58:00,
2013-03-27 13:59:00,56.8,9.7,28.67,NNW,331,0.0,0.0,15,0.00,,---,0.00,VWS V14.01,2013-03-27 18:59:00,
2013-03-27 14:00:00,57.2,8.4,28.67,NW,312,4.9,4.9,14,0.00,,---,0.00,VWS V14.01,2013-03-27 19:00:00,
2013-03-27 14:03:00,57.2,8.4,28.67,WSW,240,3.1,5.4,14,0.00,,---,0.00,VWS V14.01,2013-03-27 19:03:00,
2013-03-27 14:04:00,57.2,8.4,28.67,West,272,4.9,4.9,14,0.00,,---,0.00,VWS V14.01,2013-03-27 19:04:00,
2013-03-27 14:05:00,57.0,9.8,28.67,WNW,282,5.4,5.4,15,0.00,,---,0.00,VWS V14.01,2013-03-27 19:05:00,
2013-03-27 14:08:00,56.8,9.7,28.67,North,349,2.7,2.7,15,0.00,,---,0.00,VWS V14.01,2013-03-27 19:08:00,
2013-03-27 14:09:00,56.8,9.7,28.67,NW,313,0.0,2.7,15,0.00,,---,0.00,VWS V14.01,2013-03-27 19:09:00,
2013-03-27 14:10:00,56.8,9.7,28.67,NW,313,0.0,0.0,15,0.00,,---,0.00,VWS V14.01,2013-03-27 19:10:00,
2013-03-27 14:13:00,57.0,9.8,28.67,North,10,4.9,4.9,15,0.00,,---,0.00,VWS V14.01,2013-03-27 19:13:00,
2013-03-27 14:14:00,56.7,9.6,28.67,North,357,3.6,4.9,15,0.00,,---,0.00,VWS V14.01,2013-03-27 19:14:00,
2013-03-27 14:15:00,56.5,9.4,28.67,NW,313,5.8,5.8,15,0.00,,---,0.00,VWS V14.01,2013-03-27 19:15:00,
2013-03-27 14:19:00,56.3,9.3,28.67,WNW,302,5.4,5.4,15,0.00,,---,0.00,VWS V14.01,2013-03-27 19:19:00,
2013-03-27 14:20:00,56.3,9.3,28.67,WNW,297,4.0,4.0,15,0.00,,---,0.00,VWS V14.01,2013-03-27 19:20:00,
2013-03-27 14:24:00,56.3,9.3,28.67,NNE,15,0.0,0.0,15,0.00,,---,0.00,VWS V14.01,2013-03-27 19:24:00,
2013-03-27 14:25:00,56.3,9.3,28.67,NNW,331,6.3,6.3,15,0.00,,---,0.00,VWS V14.01,2013-03-27 19:25:00,
2013-03-27 14:29:00,56.3,9.3,28.67,WSW,245,2.2,3.1,15,0.00,,---,0.00,VWS V14.01,2013-03-27 19:29:00,
2013-03-27 14:30:00,55.9,9.0,28.67,NE,40,2.2,2.2,15,0.00,,---,0.00,VWS V14.01,2013-03-27 19:30:00,
2013-03-27 14:31:00,55.9,9.0,28.67,NE,53,4.0,4.0,15,0.00,,---,0.00,VWS V14.01,2013-03-27 19:31:00,
2013-03-27 14:34:00,56.1,9.1,28.67,North,7,4.9,8.1,15,0.00,,---,0.00,VWS V14.01,2013-03-27 19:34:00,
2013-03-27 14:35:00,55.4,8.5,28.67,NW,305,3.6,6.3,15,0.00,,---,0.00,VWS V14.01,2013-03-27 19:35:00,
2013-03-27 14:36:00,55.4,8.5,28.67,NW,305,3.6,3.6,15,0.00,,---,0.00,VWS V14.01,2013-03-27 19:36:00,
2013-03-27 14:39:00,54.7,8.0,28.64,WNW,297,8.3,8.3,15,0.00,,---,0.00,VWS V14.01,2013-03-27 19:39:00,
2013-03-27 14:40:00,54.7,8.0,28.64,NNW,343,5.8,7.6,15,0.00,,---,0.00,VWS V14.01,2013-03-27 19:40:00,
2013-03-27 14:42:00,54.1,7.5,28.64,NNW,327,8.3,8.3,15,0.00,,---,0.00,VWS V14.01,2013-03-27 19:42:00,
2013-03-27 14:44:00,54.3,7.7,28.64,WNW,288,2.7,5.4,15,0.00,,---,0.00,VWS V14.01,2013-03-27 19:44:00,
2013-03-27 14:45:00,54.3,7.7,28.64,WSW,254,2.7,5.4,15,0.00,,---,0.00,VWS V14.01,2013-03-27 19:45:00,
2013-03-27 14:47:00,54.3,7.7,28.64,NNW,336,2.2,2.7,15,0.00,,---,0.00,VWS V14.01,2013-03-27 19:47:00,
2013-03-27 14:49:00,54.3,7.7,28.64,North,353,2.7,2.7,15,0.00,,---,0.00,VWS V14.01,2013-03-27 19:49:00,
2013-03-27 14:50:00,54.3,7.7,28.64,North,353,2.7,2.7,15,0.00,,---,0.00,VWS V14.01,2013-03-27 19:50:00,
2013-03-27 14:52:00,54.3,7.7,28.64,NW,311,8.1,8.1,15,0.00,,---,0.00,VWS V14.01,2013-03-27 19:52:00,
2013-03-27 14:54:00,54.5,7.8,28.64,NNE,14,0.0,0.0,15,0.00,,---,0.00,VWS V14.01,2013-03-27 19:54:00,
2013-03-27 14:55:00,54.5,7.8,28.64,NNW,345,5.4,5.4,15,0.00,,---,0.00,VWS V14.01,2013-03-27 19:55:00,
2013-03-27 14:57:00,54.3,7.7,28.64,WSW,250,3.6,3.6,15,0.00,,---,0.00,VWS V14.01,2013-03-27 19:57:00,
2013-03-27 15:00:00,54.7,8.0,28.64,NW,314,12.3,12.3,15,0.00,,---,0.00,VWS V14.01,2013-03-27 20:00:00,
2013-03-27 15:02:00,54.7,8.0,28.64,North,10,0.0,0.0,15,0.00,,---,0.00,VWS V14.01,2013-03-27 20:02:00,
2013-03-27 15:05:00,54.7,8.0,28.64,NW,309,2.7,2.7,15,0.00,,---,0.00,VWS V14.01,2013-03-27 20:05:00,
2013-03-27 15:07:00,54.7,8.0,28.64,North,357,5.4,5.4,15,0.00,,---,0.00,VWS V14.01,2013-03-27 20:07:00,
2013-03-27 15:10:00,54.9,8.1,28.64,East,81,3.6,3.6,15,0.00,,---,0.00,VWS V14.01,2013-03-27 20:10:00,
2013-03-27 15:12:00,54.9,8.1,28.64,North,7,4.9,4.9,15,0.00,,---,0.00,VWS V14.01,2013-03-27 20:12:00,
2013-03-27 15:15:00,54.3,7.7,28.64,NW,321,5.4,5.4,15,0.00,,---,0.00,VWS V14.01,2013-03-27 20:15:00,
2013-03-27 15:17:00,54.0,7.4,28.64,NW,326,4.0,7.6,15,0.00,,---,0.00,VWS V14.01,2013-03-27 20:17:00,
2013-03-27 15:20:00,53.8,7.2,28.64,NW,319,0.0,2.7,15,0.00,,---,0.00,VWS V14.01,2013-03-27 20:20:00,
2013-03-27 15:22:00,53.8,7.2,28.64,WNW,294,8.3,8.3,15,0.00,,---,0.00,VWS V14.01,2013-03-27 20:22:00,
2013-03-27 15:25:00,53.2,8.2,28.64,North,357,0.0,4.0,16,0.00,,---,0.00,VWS V14.01,2013-03-27 20:25:00,
2013-03-27 15:28:00,53.2,8.2,28.64,NNW,327,5.4,5.4,16,0.00,,---,0.00,VWS V14.01,2013-03-27 20:28:00,
2013-03-27 15:30:00,53.2,8.2,28.64,NNW,330,5.4,5.8,16,0.00,,---,0.00,VWS V14.01,2013-03-27 20:30:00,
2013-03-27 15:31:00,53.1,8.1,28.64,NNW,348,5.4,5.4,16,0.00,,---,0.00,VWS V14.01,2013-03-27 20:31:00,
2013-03-27 15:33:00,53.1,8.1,28.64,NW,305,3.6,3.6,16,0.00,,---,0.00,VWS V14.01,2013-03-27 20:33:00,
2013-03-27 15:35:00,52.9,7.9,28.64,WNW,285,3.6,8.1,16,0.00,,---,0.00,VWS V14.01,2013-03-27 20:35:00,
2013-03-27 15:36:00,52.9,7.9,28.64,WNW,285,3.6,3.6,16,0.00,,---,0.00,VWS V14.01,2013-03-27 20:36:00,
2013-03-27 15:38:00,52.7,7.8,28.64,North,4,7.2,8.7,16,0.00,,---,0.00,VWS V14.01,2013-03-27 20:38:00,
2013-03-27 15:40:00,52.5,7.6,28.64,NNW,328,6.3,8.1,16,0.00,,---,0.00,VWS V14.01,2013-03-27 20:40:00,
2013-03-27 15:41:00,52.5,7.6,28.64,North,353,5.4,6.3,16,0.00,,---,0.00,VWS V14.01,2013-03-27 20:41:00,
2013-03-27 15:43:00,52.3,7.5,28.64,North,353,10.1,10.1,16,0.00,,---,0.00,VWS V14.01,2013-03-27 20:43:00,
2013-03-27 15:45:00,52.3,7.5,28.64,North,350,5.4,5.8,16,0.00,,---,0.00,VWS V14.01,2013-03-27 20:45:00,
2013-03-27 15:46:00,52.3,7.5,28.64,North,350,5.4,5.8,16,0.00,,---,0.00,VWS V14.01,2013-03-27 20:46:00,
2013-03-27 15:48:00,52.3,7.5,28.64,NNW,338,6.3,6.3,16,0.00,,---,0.00,VWS V14.01,2013-03-27 20:48:00,
2013-03-27 15:50:00,52.2,7.3,28.64,ESE,106,2.2,2.2,16,0.00,,---,0.00,VWS V14.01,2013-03-27 20:50:00,
2013-03-27 15:52:00,52.2,7.3,28.64,ESE,106,2.2,2.2,16,0.00,,---,0.00,VWS V14.01,2013-03-27 20:52:00,
2013-03-27 15:53:00,52.0,7.2,28.64,NW,304,5.4,5.4,16,0.00,,---,0.00,VWS V14.01,2013-03-27 20:53:00,
2013-03-27 15:55:00,52.2,7.3,28.64,NW,314,0.0,0.0,16,0.00,,---,0.00,VWS V14.01,2013-03-27 20:55:00,
2013-03-27 15:57:00,52.2,7.3,28.64,SW,218,3.1,5.4,16,0.00,,---,0.00,VWS V14.01,2013-03-27 20:57:00,
2013-03-27 15:58:00,52.2,7.3,28.64,NE,37,2.7,3.6,16,0.00,,---,0.00,VWS V14.01,2013-03-27 20:58:00,
2013-03-27 16:01:00,52.2,7.3,28.64,WNW,297,5.4,5.4,16,0.00,,---,0.00,VWS V14.01,2013-03-27 21:01:00,
2013-03-27 16:02:00,52.2,7.3,28.64,North,349,3.6,5.4,16,0.00,,---,0.00,VWS V14.01,2013-03-27 21:02:00,
2013-03-27 16:03:00,52.2,7.3,28.64,North,349,3.6,3.6,16,0.00,,---,0.00,VWS V14.01,2013-03-27 21:03:00,
2013-03-27 16:06:00,51.6,6.9,28.64,WNW,283,4.9,4.9,16,0.00,,---,0.00,VWS V14.01,2013-03-27 21:06:00,
2013-03-27 16:07:00,51.6,6.9,28.64,WNW,283,4.9,4.9,16,0.00,,---,0.00,VWS V14.01,2013-03-27 21:07:00,
2013-03-27 16:08:00,51.3,6.6,28.64,WNW,303,8.3,8.3,16,0.00,,---,0.00,VWS V14.01,2013-03-27 21:08:00,
2013-03-27 16:11:00,51.4,6.8,28.64,WNW,291,0.0,5.4,16,0.00,,---,0.00,VWS V14.01,2013-03-27 21:11:00,
2013-03-27 16:12:00,51.4,6.8,28.64,WSW,243,3.1,3.1,16,0.00,,---,0.00,VWS V14.01,2013-03-27 21:12:00,
2013-03-27 16:13:00,51.4,6.8,28.64,NE,51,3.1,3.1,16,0.00,,---,0.00,VWS V14.01,2013-03-27 21:13:00,
2013-03-27 16:16:00,51.8,7.1,28.64,NW,316,3.1,3.6,16,0.00,,---,0.00,VWS V14.01,2013-03-27 21:16:00,
2013-03-27 16:17:00,51.8,7.1,28.64,West,274,0.0,0.0,16,0.00,,---,0.00,VWS V14.01,2013-03-27 21:17:00,
2013-03-27 16:18:00,51.8,7.1,28.64,WSW,238,4.9,4.9,16,0.00,,---,0.00,VWS V14.01,2013-03-27 21:18:00,
2013-03-27 16:21:00,51.8,7.1,28.64,NW,313,7.6,7.6,16,0.00,,---,0.00,VWS V14.01,2013-03-27 21:21:00,
2013-03-27 16:22:00,51.8,7.1,28.64,NW,313,7.6,7.6,16,0.00,,---,0.00,VWS V14.01,2013-03-27 21:22:00,
2013-03-27 16:23:00,51.8,7.1,28.64,NNW,339,5.8,5.8,16,0.00,,---,0.00,VWS V14.01,2013-03-27 21:23:00,
2013-03-27 16:26:00,51.6,6.9,28.64,North,357,5.4,5.4,16,0.00,,---,0.00,VWS V14.01,2013-03-27 21:26:00,
2013-03-27 16:28:00,51.6,6.9,28.64,NW,322,8.1,8.1,16,0.00,,---,0.00,VWS V14.01,2013-03-27 21:28:00,
2013-03-27 16:31:00,51.4,6.8,28.61,NW,321,5.8,5.8,16,0.00,,---,0.00,VWS V14.01,2013-03-27 21:31:00,
2013-03-27 16:33:00,51.1,6.5,28.61,NW,321,5.8,5.8,16,0.00,,---,0.00,VWS V14.01,2013-03-27 21:33:00,
2013-03-27 16:34:00,51.1,6.5,28.61,WNW,296,4.9,4.9,16,0.00,,---,0.00,VWS V14.01,2013-03-27 21:34:00,
2013-03-27 16:36:00,51.1,6.5,28.61,WNW,303,5.8,5.8,16,0.00,,---,0.00,VWS V14.01,2013-03-27 21:36:00,
2013-03-27 16:38:00,51.1,6.5,28.61,NW,311,11.9,11.9,16,0.00,,---,0.00,VWS V14.01,2013-03-27 21:38:00,
2013-03-27 16:39:00,51.1,6.5,28.64,NW,321,8.1,11.9,16,0.00,,---,0.00,VWS V14.01,2013-03-27 21:39:00,
2013-03-27 16:42:00,50.9,6.3,28.64,NW,323,5.8,5.8,16,0.00,,---,0.00,VWS V14.01,2013-03-27 21:42:00,
2013-03-27 16:43:00,50.9,6.3,28.64,WNW,287,8.7,8.7,16,0.00,,---,0.00,VWS V14.01,2013-03-27 21:43:00,
2013-03-27 16:44:00,50.9,6.3,28.64,NNW,336,9.6,9.6,16,0.00,,---,0.00,VWS V14.01,2013-03-27 21:44:00,
2013-03-27 16:47:00,50.5,6.0,28.64,NW,326,9.2,9.2,16,0.00,,---,0.00,VWS V14.01,2013-03-27 21:47:00,
2013-03-27 16:48:00,50.5,6.0,28.64,NNE,12,7.6,7.6,16,0.00,,---,0.00,VWS V14.01,2013-03-27 21:48:00,
2013-03-27 16:49:00,50.5,6.0,28.64,North,353,8.1,8.1,16,0.00,,---,0.00,VWS V14.01,2013-03-27 21:49:00,
2013-03-27 16:52:00,50.5,6.0,28.64,WNW,301,6.3,6.3,16,0.00,,---,0.00,VWS V14.01,2013-03-27 21:52:00,
2013-03-27 16:53:00,50.5,6.0,28.64,NNW,327,6.3,6.3,16,0.00,,---,0.00,VWS V14.01,2013-03-27 21:53:00,
2013-03-27 16:54:00,50.5,6.0,28.64,NNW,333,4.0,6.3,16,0.00,,---,0.00,VWS V14.01,2013-03-27 21:54:00,
2013-03-27 16:57:00,50.5,6.0,28.64,NNW,343,4.0,8.1,16,0.00,,---,0.00,VWS V14.01,2013-03-27 21:57:00,
2013-03-27 16:58:00,50.5,6.0,28.64,NNW,343,4.0,4.0,16,0.00,,---,0.00,VWS V14.01,2013-03-27 21:58:00,
2013-03-27 16:59:00,50.5,6.0,28.64,South,187,0.0,0.0,16,0.00,,---,0.00,VWS V14.01,2013-03-27 21:59:00,
2013-03-27 17:02:00,50.5,6.0,28.64,NW,305,4.9,4.9,16,0.00,,---,0.00,VWS V14.01,2013-03-27 22:02:00,
2013-03-27 17:03:00,50.4,5.9,28.64,NW,315,8.7,8.7,16,0.00,,---,0.00,VWS V14.01,2013-03-27 22:03:00,
2013-03-27 17:04:00,50.4,5.9,28.64,NW,304,2.2,2.2,16,0.00,,---,0.00,VWS V14.01,2013-03-27 22:04:00,
2013-03-27 17:08:00,50.4,5.9,28.64,North,353,0.0,0.0,16,0.00,,---,0.00,VWS V14.01,2013-03-27 22:08:00,
2013-03-27 17:09:00,50.4,5.9,28.64,East,88,0.0,0.0,16,0.00,,---,0.00,VWS V14.01,2013-03-27 22:09:00,
2013-03-27 17:10:00,50.4,5.9,28.64,East,88,0.0,0.0,16,0.00,,---,0.00,VWS V14.01,2013-03-27 22:10:00,
2013-03-27 17:13:00,50.4,5.9,28.64,North,353,4.0,4.0,16,0.00,,---,0.00,VWS V14.01,2013-03-27 22:13:00,
2013-03-27 17:14:00,50.4,5.9,28.64,North,357,0.0,6.3,16,0.00,,---,0.00,VWS V14.01,2013-03-27 22:14:00,
2013-03-27 17:15:00,50.4,5.9,28.64,North,357,0.0,0.0,16,0.00,,---,0.00,VWS V14.01,2013-03-27 22:15:00,
2013-03-27 17:18:00,50.4,5.9,28.64,WNW,295,3.6,4.0,16,0.00,,---,0.00,VWS V14.01,2013-03-27 22:18:00,
2013-03-27 17:20:00,50.2,5.7,28.64,SW,221,0.0,3.6,16,0.00,,---,0.00,VWS V14.01,2013-03-27 22:20:00,
2013-03-27 17:23:00,50.2,5.7,28.64,West,260,4.0,4.0,16,0.00,,---,0.00,VWS V14.01,2013-03-27 22:23:00,
2013-03-27 17:25:00,50.2,5.7,28.64,North,8,2.7,2.7,16,0.00,,---,0.00,VWS V14.01,2013-03-27 22:25:00,
2013-03-27 17:28:00,50.0,5.6,28.61,North,1,6.3,6.3,16,0.00,,---,0.00,VWS V14.01,2013-03-27 22:28:00,
2013-03-27 17:30:00,50.0,5.6,28.61,NNW,345,5.4,5.4,16,0.00,,---,0.00,VWS V14.01,2013-03-27 22:30:00,
2013-03-27 17:33:00,49.8,5.4,28.61,NNW,343,0.0,0.0,16,0.00,,---,0.00,VWS V14.01,2013-03-27 22:33:00,
2013-03-27 17:35:00,49.8,5.4,28.61,NW,309,3.6,6.3,16,0.00,,---,0.00,VWS V14.01,2013-03-27 22:35:00,
2013-03-27 17:38:00,49.8,5.4,28.61,NW,306,2.7,4.0,16,0.00,,---,0.00,VWS V14.01,2013-03-27 22:38:00,
2013-03-27 17:40:00,49.8,5.4,28.61,North,0,4.9,4.9,16,0.00,,---,0.00,VWS V14.01,2013-03-27 22:40:00,
2013-03-27 17:43:00,49.6,5.3,28.61,NW,321,3.6,5.8,16,0.00,,---,0.00,VWS V14.01,2013-03-27 22:43:00,
2013-03-27 17:45:00,49.6,5.3,28.61,NW,313,4.9,5.8,16,0.00,,---,0.00,VWS V14.01,2013-03-27 22:45:00,
2013-03-27 17:48:00,49.5,5.2,28.61,NNW,328,3.1,5.8,16,0.00,,---,0.00,VWS V14.01,2013-03-27 22:48:00,
2013-03-27 17:50:00,49.5,5.2,28.61,North,353,3.1,7.6,16,0.00,,---,0.00,VWS V14.01,2013-03-27 22:50:00,
2013-03-27 17:53:00,49.5,5.2,28.61,SW,231,6.3,8.7,16,0.00,,---,0.00,VWS V14.01,2013-03-27 22:53:00,
2013-03-27 17:54:00,49.5,5.2,28.61,SW,231,6.3,6.3,16,0.00,,---,0.00,VWS V14.01,2013-03-27 22:54:00,
2013-03-27 17:55:00,49.5,5.2,28.61,NW,320,8.7,8.7,16,0.00,,---,0.00,VWS V14.01,2013-03-27 22:55:00,
2013-03-27 17:58:00,49.3,5.0,28.61,West,277,0.0,0.0,16,0.00,,---,0.00,VWS V14.01,2013-03-27 22:58:00,
2013-03-27 17:59:00,49.3,5.0,28.61,West,277,0.0,0.0,16,0.00,,---,0.00,VWS V14.01,2013-03-27 22:59:00,
2013-03-27 18:00:00,49.3,5.0,28.61,NW,316,0.0,4.0,16,0.00,,---,0.00,VWS V14.01,2013-03-27 23:00:00,
2013-03-27 18:04:00,49.1,4.9,28.61,NNW,340,5.8,6.3,16,0.00,,---,0.00,VWS V14.01,2013-03-27 23:04:00,
2013-03-27 18:05:00,48.9,4.7,28.61,SW,233,7.6,7.6,16,0.00,,---,0.00,VWS V14.01,2013-03-27 23:05:00,
2013-03-27 18:09:00,48.9,4.7,28.61,WNW,301,5.8,5.8,16,0.00,,---,0.00,VWS V14.01,2013-03-27 23:09:00,
2013-03-27 18:10:00,48.7,4.6,28.61,NNW,341,3.1,3.1,16,0.00,,---,0.00,VWS V14.01,2013-03-27 23:10:00,
2013-03-27 18:11:00,48.7,4.6,28.61,WNW,298,6.3,6.3,16,0.00,,---,0.00,VWS V14.01,2013-03-27 23:11:00,
2013-03-27 18:14:00,48.7,4.6,28.61,NW,305,4.0,4.0,16,0.00,,---,0.00,VWS V14.01,2013-03-27 23:14:00,
2013-03-27 18:15:00,48.7,4.6,28.61,NNW,327,2.7,4.0,16,0.00,,---,0.00,VWS V14.01,2013-03-27 23:15:00,
2013-03-27 18:16:00,48.7,4.6,28.61,NNW,327,2.2,2.7,16,0.00,,---,0.00,VWS V14.01,2013-03-27 23:16:00,
2013-03-27 18:19:00,48.6,4.4,28.61,North,1,2.2,3.1,16,0.00,,---,0.00,VWS V14.01,2013-03-27 23:19:00,
2013-03-27 18:20:00,48.6,4.4,28.61,NNW,336,3.6,3.6,16,0.00,,---,0.00,VWS V14.01,2013-03-27 23:20:00,
2013-03-27 18:21:00,48.6,4.4,28.61,NNW,331,3.6,3.6,16,0.00,,---,0.00,VWS V14.01,2013-03-27 23:21:00,
2013-03-27 18:24:00,48.6,4.4,28.64,NNE,18,4.0,7.6,16,0.00,,---,0.00,VWS V14.01,2013-03-27 23:24:00,
2013-03-27 18:26:00,48.2,4.1,28.64,NW,326,5.4,5.4,16,0.00,,---,0.00,VWS V14.01,2013-03-27 23:26:00,
2013-03-27 18:29:00,48.2,4.1,28.64,NW,310,2.2,6.3,16,0.00,,---,0.00,VWS V14.01,2013-03-27 23:29:00,
2013-03-27 18:31:00,48.0,5.3,28.64,NW,310,2.2,2.2,17,0.00,,---,0.00,VWS V14.01,2013-03-27 23:31:00,
2013-03-27 18:32:00,48.0,5.3,28.64,NW,314,3.1,3.1,17,0.00,,---,0.00,VWS V14.01,2013-03-27 23:32:00,
2013-03-27 18:35:00,47.8,5.2,28.64,NNW,329,4.9,4.9,17,0.00,,---,0.00,VWS V14.01,2013-03-27 23:35:00,
2013-03-27 18:36:00,47.8,5.2,28.64,NW,310,3.6,4.9,17,0.00,,---,0.00,VWS V14.01,2013-03-27 23:36:00,
2013-03-27 18:37:00,47.8,5.2,28.64,WSW,249,3.1,3.6,17,0.00,,---,0.00,VWS V14.01,2013-03-27 23:37:00,
2013-03-27 18:40:00,47.7,5.0,28.64,North,0,4.0,4.9,17,0.00,,---,0.00,VWS V14.01,2013-03-27 23:40:00,
2013-03-27 18:41:00,47.5,4.8,28.64,NNW,327,3.1,5.4,17,0.00,,---,0.00,VWS V14.01,2013-03-27 23:41:00,
2013-03-27 18:42:00,47.5,4.8,28.64,NNW,339,2.7,4.9,17,0.00,,---,0.00,VWS V14.01,2013-03-27 23:42:00,
2013-03-27 18:45:00,47.5,4.8,28.64,NW,310,5.4,5.4,17,0.00,,---,0.00,VWS V14.01,2013-03-27 23:45:00,
2013-03-27 18:46:00,47.3,4.7,28.64,NW,310,5.4,5.4,17,0.00,,---,0.00,VWS V14.01,2013-03-27 23:46:00,
2013-03-27 18:48:00,47.3,4.7,28.64,NW,326,3.1,5.4,17,0.00,,---,0.00,VWS V14.01,2013-03-27 23:48:00,
2013-03-27 18:50:00,47.1,4.6,28.64,West,266,2.7,3.1,17,0.00,,---,0.00,VWS V14.01,2013-03-27 23:50:00,
2013-03-27 18:51:00,47.1,4.6,28.64,NNW,330,4.0,4.0,17,0.00,,---,0.00,VWS V14.01,2013-03-27 23:51:00,
2013-03-27 18:53:00,47.1,4.6,28.64,NW,315,4.0,4.0,17,0.00,,---,0.00,VWS V14.01,2013-03-27 23:53:00,
2013-03-27 18:55:00,46.9,4.4,28.64,NW,311,4.9,4.9,17,0.00,,---,0.00,VWS V14.01,2013-03-27 23:55:00,
2013-03-27 18:56:00,46.9,4.4,28.64,NW,320,3.1,4.9,17,0.00,,---,0.00,VWS V14.01,2013-03-27 23:56:00,
2013-03-27 18:57:00,46.8,4.3,28.64,NW,320,3.1,3.1,17,0.00,,---,0.00,VWS V14.01,2013-03-27 23:57:00,
2013-03-27 18:58:00,46.8,4.3,28.64,WNW,285,3.6,3.6,17,0.00,,---,0.00,VWS V14.01,2013-03-27 23:58:00,
2013-03-27 19:00:00,46.8,4.3,28.64,NNE,26,4.9,4.9,17,0.00,,---,0.00,VWS V14.01,2013-03-28 00:00:00,
2013-03-27 19:01:00,46.8,4.3,28.64,WNW,284,5.8,5.8,17,0.00,,---,0.00,VWS V14.01,2013-03-28 00:01:00,
2013-03-27 19:02:00,46.6,4.1,28.64,WNW,284,5.8,5.8,17,0.00,,---,0.00,VWS V14.01,2013-03-28 00:02:00,
2013-03-27 19:03:00,46.6,4.1,28.64,NW,326,3.6,3.6,17,0.00,,---,0.00,VWS V14.01,2013-03-28 00:03:00,
2013-03-27 19:05:00,46.4,4.0,28.64,WNW,303,2.7,4.0,17,0.00,,---,0.00,VWS V14.01,2013-03-28 00:05:00,
2013-03-27 19:06:00,46.4,4.0,28.64,WNW,303,2.7,2.7,17,0.00,,---,0.00,VWS V14.01,2013-03-28 00:06:00,
2013-03-27 19:07:00,46.4,4.0,28.64,WNW,303,3.6,3.6,17,0.00,,---,0.00,VWS V14.01,2013-03-28 00:07:00,
2013-03-27 19:09:00,46.4,4.0,28.64,WNW,291,0.0,3.6,17,0.00,,---,0.00,VWS V14.01,2013-03-28 00:09:00,
2013-03-27 19:10:00,46.4,4.0,28.64,NW,317,4.0,4.0,17,0.00,,---,0.00,VWS V14.01,2013-03-28 00:10:00,
2013-03-27 19:11:00,46.4,4.0,28.64,NNW,338,5.8,5.8,17,0.00,,---,0.00,VWS V14.01,2013-03-28 00:11:00,
2013-03-27 19:13:00,46.0,3.7,28.64,North,11,3.6,3.6,17,0.00,,---,0.00,VWS V14.01,2013-03-28 00:13:00,
2013-03-27 19:14:00,46.0,3.7,28.64,North,11,0.0,0.0,17,0.00,,---,0.00,VWS V14.01,2013-03-28 00:14:00,
2013-03-27 19:15:00,45.9,3.5,28.64,North,11,0.0,0.0,17,0.00,,---,0.00,VWS V14.01,2013-03-28 00:15:00,
2013-03-27 19:16:00,45.9,3.5,28.64,West,260,0.0,0.0,17,0.00,,---,0.00,VWS V14.01,2013-03-28 00:16:00,
2013-03-27 19:18:00,45.9,3.5,28.64,West,260,0.0,0.0,17,0.00,,---,0.00,VWS V14.01,2013-03-28 00:18:00,
2013-03-27 19:19:00,45.9,3.5,28.64,NW,326,2.7,2.7,17,0.00,,---,0.00,VWS V14.01,2013-03-28 00:19:00,
2013-03-27 19:20:00,45.9,3.5,28.64,West,269,0.0,3.1,17,0.00,,---,0.00,VWS V14.01,2013-03-28 00:20:00,
2013-03-27 19:22:00,45.5,3.2,28.64,West,269,0.0,0.0,17,0.00,,---,0.00,VWS V14.01,2013-03-28 00:22:00,
2013-03-27 19:23:00,45.5,3.2,28.64,NW,310,3.6,3.6,17,0.00,,---,0.00,VWS V14.01,2013-03-28 00:23:00,
2013-03-27 19:24:00,45.5,3.2,28.64,NW,326,3.1,3.6,17,0.00,,---,0.00,VWS V14.01,2013-03-28 00:24:00,
2013-03-27 19:25:00,45.5,3.2,28.64,NW,313,4.9,4.9,17,0.00,,---,0.00,VWS V14.01,2013-03-28 00:25:00,
2013-03-27 19:27:00,45.5,3.2,28.64,NNW,331,3.1,3.1,17,0.00,,---,0.00,VWS V14.01,2013-03-28 00:27:00,
2013-03-27 19:28:00,45.5,3.2,28.64,NNW,331,2.7,3.1,17,0.00,,---,0.00,VWS V14.01,2013-03-28 00:28:00,
2013-03-27 19:29:00,45.5,3.2,28.64,NNW,332,2.7,2.7,17,0.00,,---,0.00,VWS V14.01,2013-03-28 00:29:00,
2013-03-27 19:30:00,45.1,2.9,28.64,NNW,331,0.0,2.7,17,0.00,,---,0.00,VWS V14.01,2013-03-28 00:30:00,
2013-03-27 19:32:00,45.1,2.9,28.64,NNW,329,0.0,2.2,17,0.00,,---,0.00,VWS V14.01,2013-03-28 00:32:00,
2013-03-27 19:33:00,45.0,2.8,28.64,NW,324,4.0,4.0,17,0.00,,---,0.00,VWS V14.01,2013-03-28 00:33:00,
2013-03-27 19:35:00,45.0,2.8,28.64,NW,324,3.6,4.0,17,0.00,,---,0.00,VWS V14.01,2013-03-28 00:35:00,
2013-03-27 19:37:00,44.8,2.6,28.64,NW,324,0.0,2.7,17,0.00,,---,0.00,VWS V14.01,2013-03-28 00:37:00,
2013-03-27 19:38:00,44.6,2.5,28.64,NW,324,2.2,2.2,17,0.00,,---,0.00,VWS V14.01,2013-03-28 00:38:00,
2013-03-27 19:40:00,44.6,6.0,28.64,NW,324,0.0,0.0,20,0.00,,---,0.00,VWS V14.01,2013-03-28 00:40:00,
2013-03-27 19:43:00,44.6,8.1,28.64,NW,324,2.2,2.2,22,0.00,,---,0.00,VWS V14.01,2013-03-28 00:43:00,
2013-03-27 19:44:00,44.6,8.1,28.64,NW,324,2.7,2.7,22,0.00,,---,0.00,VWS V14.01,2013-03-28 00:44:00,
2013-03-27 19:45:00,44.6,6.0,28.64,NW,324,2.7,2.7,20,0.00,,---,0.00,VWS V14.01,2013-03-28 00:45:00,
2013-03-27 19:46:00,44.6,6.0,28.64,NW,324,3.6,3.6,20,0.00,,---,0.00,VWS V14.01,2013-03-28 00:46:00,
2013-03-27 19:48:00,44.4,5.9,28.64,NW,324,2.7,3.6,20,0.00,,---,0.00,VWS V14.01,2013-03-28 00:48:00,
2013-03-27 19:49:00,44.4,5.9,28.64,NW,324,2.2,2.7,20,0.00,,---,0.00,VWS V14.01,2013-03-28 00:49:00,
2013-03-27 19:50:00,44.4,5.9,28.64,NW,324,0.0,0.0,20,0.00,,---,0.00,VWS V14.01,2013-03-28 00:50:00,
2013-03-27 19:51:00,44.4,5.9,28.64,NW,324,3.6,3.6,20,0.00,,---,0.00,VWS V14.01,2013-03-28 00:51:00,
2013-03-27 19:53:00,44.4,8.9,28.64,NW,324,3.1,3.1,23,0.00,,---,0.00,VWS V14.01,2013-03-28 00:53:00,
2013-03-27 19:54:00,44.4,8.9,28.64,NW,324,2.7,3.1,23,0.00,,---,0.00,VWS V14.01,2013-03-28 00:54:00,
2013-03-27 19:55:00,44.2,8.8,28.64,NW,324,2.7,2.7,23,0.00,,---,0.00,VWS V14.01,2013-03-28 00:55:00,
2013-03-27 19:56:00,44.2,8.8,28.64,NW,324,0.0,2.7,23,0.00,,---,0.00,VWS V14.01,2013-03-28 00:56:00,
2013-03-27 19:58:00,44.2,8.8,28.64,NW,324,0.0,3.6,23,0.00,,---,0.00,VWS V14.01,2013-03-28 00:58:00,
2013-03-27 19:59:00,44.2,8.8,28.64,NW,324,0.0,0.0,23,0.00,,---,0.00,VWS V14.01,2013-03-28 00:59:00,
2013-03-27 20:00:00,44.2,8.8,28.64,NW,324,0.0,0.0,23,0.00,,---,0.00,VWS V14.01,2013-03-28 01:00:00,
2013-03-27 20:02:00,44.2,8.8,28.64,NW,324,2.2,2.2,23,0.00,,---,0.00,VWS V14.01,2013-03-28 01:02:00,
2013-03-27 20:03:00,44.2,8.8,28.64,NW,322,0.0,0.0,23,0.00,,---,0.00,VWS V14.01,2013-03-28 01:03:00,
2013-03-27 20:04:00,44.1,8.6,28.64,NW,322,0.0,0.0,23,0.00,,---,0.00,VWS V14.01,2013-03-28 01:04:00,
2013-03-27 20:05:00,44.1,5.6,28.64,NW,321,2.7,2.7,20,0.00,,---,0.00,VWS V14.01,2013-03-28 01:05:00,
2013-03-27 20:07:00,44.1,5.6,28.64,NW,322,0.0,0.0,20,0.00,,---,0.00,VWS V14.01,2013-03-28 01:07:00,
2013-03-27 20:08:00,43.9,5.4,28.64,NW,317,3.1,3.1,20,0.00,,---,0.00,VWS V14.01,2013-03-28 01:08:00,
2013-03-27 20:09:00,43.9,5.4,28.64,NW,317,0.0,3.1,20,0.00,,---,0.00,VWS V14.01,2013-03-28 01:09:00,
2013-03-27 20:10:00,43.9,5.4,28.64,NW,317,2.7,2.7,20,0.00,,---,0.00,VWS V14.01,2013-03-28 01:10:00,
2013-03-27 20:12:00,43.7,5.3,28.64,NW,317,0.0,3.1,20,0.00,,---,0.00,VWS V14.01,2013-03-28 01:12:00,
2013-03-27 20:14:00,43.5,5.1,28.64,NW,317,2.2,4.0,20,0.00,,---,0.00,VWS V14.01,2013-03-28 01:14:00,
2013-03-27 20:15:00,43.5,5.1,28.64,NW,317,0.0,2.7,20,0.00,,---,0.00,VWS V14.01,2013-03-28 01:15:00,
2013-03-27 20:17:00,43.3,5.0,28.64,NW,317,0.0,0.0,20,0.00,,---,0.00,VWS V14.01,2013-03-28 01:17:00,
2013-03-27 20:19:00,43.3,5.0,28.64,NW,317,0.0,0.0,20,0.00,,---,0.00,VWS V14.01,2013-03-28 01:19:00,
2013-03-27 20:20:00,43.2,4.8,28.64,NW,317,3.1,3.1,20,0.00,,---,0.00,VWS V14.01,2013-03-28 01:20:00,
2013-03-27 20:22:00,43.2,4.8,28.64,NW,317,0.0,3.1,20,0.00,,---,0.00,VWS V14.01,2013-03-28 01:22:00,
2013-03-27 20:24:00,43.0,4.7,28.64,NW,314,2.2,3.1,20,0.00,,---,0.00,VWS V14.01,2013-03-28 01:24:00,
2013-03-27 20:25:00,43.0,4.7,28.64,NW,314,0.0,4.0,20,0.00,,---,0.00,VWS V14.01,2013-03-28 01:25:00,
2013-03-27 20:27:00,42.8,4.5,28.64,NW,314,0.0,2.7,20,0.00,,---,0.00,VWS V14.01,2013-03-28 01:27:00,
2013-03-27 20:29:00,42.8,4.5,28.64,NW,314,3.6,3.6,20,0.00,,---,0.00,VWS V14.01,2013-03-28 01:29:00,
2013-03-27 20:30:00,42.6,5.4,28.64,NW,314,0.0,0.0,21,0.00,,---,0.00,VWS V14.01,2013-03-28 01:30:00,
2013-03-27 20:32:00,42.6,5.4,28.64,NW,314,0.0,0.0,21,0.00,,---,0.00,VWS V14.01,2013-03-28 01:32:00,
2013-03-27 20:34:00,42.6,5.4,28.64,NW,314,0.0,0.0,21,0.00,,---,0.00,VWS V14.01,2013-03-28 01:34:00,
2013-03-27 20:35:00,42.4,5.3,28.64,NW,314,0.0,0.0,21,0.00,,---,0.00,VWS V14.01,2013-03-28 01:35:00,
2013-03-27 20:37:00,42.3,5.1,28.64,NW,314,0.0,0.0,21,0.00,,---,0.00,VWS V14.01,2013-03-28 01:37:00,
2013-03-27 20:39:00,42.3,5.1,28.64,NW,314,0.0,0.0,21,0.00,,---,0.00,VWS V14.01,2013-03-28 01:39:00,
2013-03-27 20:40:00,42.1,5.0,28.64,NW,314,0.0,0.0,21,0.00,,---,0.00,VWS V14.01,2013-03-28 01:40:00,
2013-03-27 20:42:00,42.1,5.0,28.64,NW,314,0.0,0.0,21,0.00,,---,0.00,VWS V14.01,2013-03-28 01:42:00,
2013-03-27 20:44:00,41.9,4.8,28.64,NW,314,0.0,0.0,21,0.00,,---,0.00,VWS V14.01,2013-03-28 01:44:00,
2013-03-27 20:45:00,41.9,4.8,28.64,NW,314,0.0,0.0,21,0.00,,---,0.00,VWS V14.01,2013-03-28 01:45:00,
2013-03-27 20:47:00,41.5,6.5,28.64,NW,314,0.0,0.0,23,0.00,,---,0.00,VWS V14.01,2013-03-28 01:47:00,
2013-03-27 20:49:00,41.5,6.5,28.64,NW,314,0.0,0.0,23,0.00,,---,0.00,VWS V14.01,2013-03-28 01:49:00,
2013-03-27 20:50:00,41.5,6.5,28.64,NW,314,0.0,0.0,23,0.00,,---,0.00,VWS V14.01,2013-03-28 01:50:00,
2013-03-27 20:53:00,41.4,6.4,28.64,NW,314,0.0,0.0,23,0.00,,---,0.00,VWS V14.01,2013-03-28 01:53:00,
2013-03-27 20:54:00,41.2,6.2,28.67,NW,314,0.0,0.0,23,0.00,,---,0.00,VWS V14.01,2013-03-28 01:54:00,
2013-03-27 20:55:00,41.2,6.2,28.67,NW,314,0.0,0.0,23,0.00,,---,0.00,VWS V14.01,2013-03-28 01:55:00,
2013-03-27 20:58:00,41.2,6.2,28.67,NW,314,0.0,0.0,23,0.00,,---,0.00,VWS V14.01,2013-03-28 01:58:00,
2013-03-27 20:59:00,41.2,6.2,28.67,NW,314,0.0,0.0,23,0.00,,---,0.00,VWS V14.01,2013-03-28 01:59:00,
2013-03-27 21:00:00,41.2,6.2,28.67,NW,314,0.0,0.0,23,0.00,,---,0.00,VWS V14.01,2013-03-28 02:00:00,
2013-03-27 21:01:00,41.0,6.1,28.67,NW,314,0.0,0.0,23,0.00,,---,0.00,VWS V14.01,2013-03-28 02:01:00,
2013-03-27 21:03:00,41.0,6.1,28.67,NW,314,0.0,0.0,23,0.00,,---,0.00,VWS V14.01,2013-03-28 02:03:00,
2013-03-27 21:04:00,40.6,5.8,28.67,NW,314,0.0,0.0,23,0.00,,---,0.00,VWS V14.01,2013-03-28 02:04:00,
2013-03-27 21:05:00,40.6,5.8,28.67,NW,314,0.0,0.0,23,0.00,,---,0.00,VWS V14.01,2013-03-28 02:05:00,
2013-03-27 21:07:00,40.5,5.6,28.67,NW,314,0.0,0.0,23,0.00,,---,0.00,VWS V14.01,2013-03-28 02:07:00,
2013-03-27 21:08:00,40.5,5.6,28.67,NW,314,0.0,0.0,23,0.00,,---,0.00,VWS V14.01,2013-03-28 02:08:00,
2013-03-27 21:09:00,40.3,5.4,28.67,NW,314,0.0,0.0,23,0.00,,---,0.00,VWS V14.01,2013-03-28 02:09:00,
2013-03-27 21:10:00,40.3,5.4,28.67,NW,314,0.0,0.0,23,0.00,,---,0.00,VWS V14.01,2013-03-28 02:10:00,
2013-03-27 21:12:00,40.1,8.0,28.67,NW,314,0.0,0.0,26,0.00,,---,0.00,VWS V14.01,2013-03-28 02:12:00,
2013-03-27 21:13:00,39.9,7.8,28.67,NW,314,0.0,0.0,26,0.00,,---,0.00,VWS V14.01,2013-03-28 02:13:00,
2013-03-27 21:14:00,39.9,7.8,28.67,NW,314,0.0,0.0,26,0.00,,---,0.00,VWS V14.01,2013-03-28 02:14:00,
2013-03-27 21:15:00,39.9,7.8,28.67,NW,314,0.0,0.0,26,0.00,,---,0.00,VWS V14.01,2013-03-28 02:15:00,
2013-03-27 21:17:00,39.9,7.8,28.67,NW,314,0.0,0.0,26,0.00,,---,0.00,VWS V14.01,2013-03-28 02:17:00,
2013-03-27 21:18:00,39.9,7.8,28.67,NW,314,0.0,0.0,26,0.00,,---,0.00,VWS V14.01,2013-03-28 02:18:00,
2013-03-27 21:19:00,39.7,7.7,28.67,NW,314,0.0,0.0,26,0.00,,---,0.00,VWS V14.01,2013-03-28 02:19:00,
2013-03-27 21:20:00,39.7,7.7,28.67,NW,314,0.0,0.0,26,0.00,,---,0.00,VWS V14.01,2013-03-28 02:20:00,
2013-03-27 21:22:00,39.7,7.7,28.67,NW,314,0.0,0.0,26,0.00,,---,0.00,VWS V14.01,2013-03-28 02:22:00,
2013-03-27 21:23:00,39.6,7.5,28.67,NW,314,0.0,0.0,26,0.00,,---,0.00,VWS V14.01,2013-03-28 02:23:00,
2013-03-27 21:24:00,39.6,7.5,28.67,NW,314,0.0,0.0,26,0.00,,---,0.00,VWS V14.01,2013-03-28 02:24:00,
2013-03-27 21:25:00,39.6,7.5,28.64,NW,314,0.0,0.0,26,0.00,,---,0.00,VWS V14.01,2013-03-28 02:25:00,
2013-03-27 21:27:00,39.4,9.0,28.64,NW,314,0.0,0.0,28,0.00,,---,0.00,VWS V14.01,2013-03-28 02:27:00,
2013-03-27 21:28:00,39.4,9.0,28.64,NW,314,0.0,0.0,28,0.00,,---,0.00,VWS V14.01,2013-03-28 02:28:00,
2013-03-27 21:29:00,39.4,9.0,28.64,NW,314,0.0,0.0,28,0.00,,---,0.00,VWS V14.01,2013-03-28 02:29:00,
2013-03-27 21:31:00,39.4,9.0,28.64,NW,314,0.0,0.0,28,0.00,,---,0.00,VWS V14.01,2013-03-28 02:31:00,
2013-03-27 21:33:00,39.4,9.0,28.64,NW,314,0.0,0.0,28,0.00,,---,0.00,VWS V14.01,2013-03-28 02:33:00,
2013-03-27 21:34:00,39.2,9.6,28.64,NW,314,0.0,0.0,29,0.00,,---,0.00,VWS V14.01,2013-03-28 02:34:00,
2013-03-27 21:36:00,39.2,9.6,28.64,NW,314,0.0,0.0,29,0.00,,---,0.00,VWS V14.01,2013-03-28 02:36:00,
2013-03-27 21:38:00,39.0,9.5,28.64,NW,314,0.0,0.0,29,0.00,,---,0.00,VWS V14.01,2013-03-28 02:38:00,
2013-03-27 21:39:00,39.0,9.5,28.64,NW,314,0.0,0.0,29,0.00,,---,0.00,VWS V14.01,2013-03-28 02:39:00,
2013-03-27 21:41:00,39.0,9.5,28.64,NW,314,0.0,0.0,29,0.00,,---,0.00,VWS V14.01,2013-03-28 02:41:00,
2013-03-27 21:43:00,39.0,9.5,28.64,NW,314,0.0,0.0,29,0.00,,---,0.00,VWS V14.01,2013-03-28 02:43:00,
2013-03-27 21:45:00,38.8,9.3,28.64,NW,314,0.0,0.0,29,0.00,,---,0.00,VWS V14.01,2013-03-28 02:45:00,
2013-03-27 21:46:00,38.8,9.3,28.64,NW,314,0.0,0.0,29,0.00,,---,0.00,VWS V14.01,2013-03-28 02:46:00,
2013-03-27 21:48:00,38.8,9.3,28.64,NW,314,0.0,0.0,29,0.00,,---,0.00,VWS V14.01,2013-03-28 02:48:00,
2013-03-27 21:50:00,38.8,9.3,28.64,NW,314,0.0,0.0,29,0.00,,---,0.00,VWS V14.01,2013-03-28 02:50:00,
2013-03-27 21:51:00,38.7,9.2,28.64,NW,314,0.0,0.0,29,0.00,,---,0.00,VWS V14.01,2013-03-28 02:51:00,
2013-03-27 21:53:00,38.7,9.2,28.64,NW,314,0.0,0.0,29,0.00,,---,0.00,VWS V14.01,2013-03-28 02:53:00,
2013-03-27 21:55:00,38.3,9.6,28.64,NW,314,0.0,0.0,30,0.00,,---,0.00,VWS V14.01,2013-03-28 02:55:00,
2013-03-27 21:56:00,38.3,9.6,28.64,NW,314,0.0,0.0,30,0.00,,---,0.00,VWS V14.01,2013-03-28 02:56:00,
2013-03-27 21:58:00,38.1,9.4,28.64,NW,314,0.0,0.0,30,0.00,,---,0.00,VWS V14.01,2013-03-28 02:58:00,
2013-03-27 21:59:00,38.1,9.4,28.64,NW,314,0.0,0.0,30,0.00,,---,0.00,VWS V14.01,2013-03-28 02:59:00,
2013-03-27 22:00:00,38.1,9.4,28.64,NW,314,0.0,0.0,30,0.00,,---,0.00,VWS V14.01,2013-03-28 03:00:00,
2013-03-27 22:01:00,38.1,9.4,28.64,NW,314,0.0,0.0,30,0.00,,---,0.00,VWS V14.01,2013-03-28 03:01:00,
2013-03-27 22:03:00,38.1,9.4,28.64,NW,314,0.0,0.0,30,0.00,,---,0.00,VWS V14.01,2013-03-28 03:03:00,
2013-03-27 22:04:00,38.1,9.4,28.64,NW,314,0.0,0.0,30,0.00,,---,0.00,VWS V14.01,2013-03-28 03:04:00,
2013-03-27 22:05:00,37.9,9.3,28.64,NW,314,0.0,0.0,30,0.00,,---,0.00,VWS V14.01,2013-03-28 03:05:00,
2013-03-27 22:06:00,37.9,9.3,28.64,NW,314,0.0,0.0,30,0.00,,---,0.00,VWS V14.01,2013-03-28 03:06:00,
2013-03-27 22:08:00,37.9,9.3,28.64,NW,314,0.0,0.0,30,0.00,,---,0.00,VWS V14.01,2013-03-28 03:08:00,
2013-03-27 22:09:00,37.9,9.3,28.64,NW,314,0.0,0.0,30,0.00,,---,0.00,VWS V14.01,2013-03-28 03:09:00,
2013-03-27 22:10:00,37.8,9.9,28.64,NW,315,0.0,0.0,31,0.00,,---,0.00,VWS V14.01,2013-03-28 03:10:00,
2013-03-27 22:11:00,37.8,9.9,28.64,NW,314,0.0,0.0,31,0.00,,---,0.00,VWS V14.01,2013-03-28 03:11:00,
2013-03-27 22:13:00,37.6,9.7,28.67,NW,314,0.0,0.0,31,0.00,,---,0.00,VWS V14.01,2013-03-28 03:13:00,
2013-03-27 22:14:00,37.6,9.7,28.67,NW,315,0.0,0.0,31,0.00,,---,0.00,VWS V14.01,2013-03-28 03:14:00,
2013-03-27 22:15:00,37.6,9.7,28.67,NW,315,0.0,0.0,31,0.00,,---,0.00,VWS V14.01,2013-03-28 03:15:00,
2013-03-27 22:17:00,37.6,9.7,28.67,NW,314,0.0,0.0,31,0.00,,---,0.00,VWS V14.01,2013-03-28 03:17:00,
2013-03-27 22:18:00,37.6,9.7,28.67,NW,314,0.0,0.0,31,0.00,,---,0.00,VWS V14.01,2013-03-28 03:18:00,
2013-03-27 22:19:00,37.6,10.4,28.67,NW,314,0.0,0.0,32,0.00,,---,0.00,VWS V14.01,2013-03-28 03:19:00,
2013-03-27 22:20:00,37.4,10.2,28.67,NW,314,0.0,0.0,32,0.00,,---,0.00,VWS V14.01,2013-03-28 03:20:00,
2013-03-27 22:22:00,37.4,10.2,28.67,NW,314,0.0,0.0,32,0.00,,---,0.00,VWS V14.01,2013-03-28 03:22:00,
2013-03-27 22:23:00,37.4,10.2,28.67,NW,314,0.0,0.0,32,0.00,,---,0.00,VWS V14.01,2013-03-28 03:23:00,
2013-03-27 22:24:00,37.4,10.2,28.67,NW,314,0.0,0.0,32,0.00,,---,0.00,VWS V14.01,2013-03-28 03:24:00,
2013-03-27 22:25:00,37.2,10.1,28.67,NW,314,0.0,0.0,32,0.00,,---,0.00,VWS V14.01,2013-03-28 03:25:00,
2013-03-27 22:27:00,37.2,10.8,28.67,NW,314,0.0,0.0,33,0.00,,---,0.00,VWS V14.01,2013-03-28 03:27:00,
2013-03-27 22:28:00,37.2,10.8,28.67,NW,315,0.0,0.0,33,0.00,,---,0.00,VWS V14.01,2013-03-28 03:28:00,
2013-03-27 22:29:00,37.2,10.8,28.67,NW,314,0.0,0.0,33,0.00,,---,0.00,VWS V14.01,2013-03-28 03:29:00,
2013-03-27 22:30:00,37.2,10.8,28.67,NW,314,0.0,0.0,33,0.00,,---,0.00,VWS V14.01,2013-03-28 03:30:00,
2013-03-27 22:32:00,37.0,10.6,28.67,NW,314,0.0,0.0,33,0.00,,---,0.00,VWS V14.01,2013-03-28 03:32:00,
2013-03-27 22:34:00,37.0,10.6,28.67,NW,314,0.0,0.0,33,0.00,,---,0.00,VWS V14.01,2013-03-28 03:34:00,
2013-03-27 22:35:00,36.9,10.5,28.64,NW,314,0.0,0.0,33,0.00,,---,0.00,VWS V14.01,2013-03-28 03:35:00,
2013-03-27 22:37:00,36.9,10.5,28.64,NW,314,0.0,0.0,33,0.00,,---,0.00,VWS V14.01,2013-03-28 03:37:00,
2013-03-27 22:39:00,36.9,10.5,28.64,NW,314,0.0,0.0,33,0.00,,---,0.00,VWS V14.01,2013-03-28 03:39:00,
2013-03-27 22:40:00,36.9,10.5,28.64,NW,314,0.0,0.0,33,0.00,,---,0.00,VWS V14.01,2013-03-28 03:40:00,
2013-03-27 22:42:00,36.7,10.3,28.64,NW,314,0.0,0.0,33,0.00,,---,0.00,VWS V14.01,2013-03-28 03:42:00,
2013-03-27 22:44:00,36.7,10.3,28.64,NW,314,0.0,0.0,33,0.00,,---,0.00,VWS V14.01,2013-03-28 03:44:00,
2013-03-27 22:45:00,36.7,10.3,28.64,NW,314,0.0,0.0,33,0.00,,---,0.00,VWS V14.01,2013-03-28 03:45:00,
2013-03-27 22:48:00,36.5,10.8,28.64,NW,314,0.0,0.0,34,0.00,,---,0.00,VWS V14.01,2013-03-28 03:48:00,
2013-03-27 22:49:00,36.5,10.8,28.64,NW,313,0.0,0.0,34,0.00,,---,0.00,VWS V14.01,2013-03-28 03:49:00,
2013-03-27 22:50:00,36.3,10.6,28.64,NW,314,0.0,0.0,34,0.00,,---,0.00,VWS V14.01,2013-03-28 03:50:00,
2013-03-27 22:54:00,36.3,10.6,28.64,NW,313,0.0,0.0,34,0.00,,---,0.00,VWS V14.01,2013-03-28 03:54:00,
2013-03-27 22:55:00,36.3,10.6,28.64,NW,313,0.0,0.0,34,0.00,,---,0.00,VWS V14.01,2013-03-28 03:55:00,
2013-03-27 22:59:00,36.3,11.3,28.64,NW,314,0.0,0.0,35,0.00,,---,0.00,VWS V14.01,2013-03-28 03:59:00,
2013-03-27 23:00:00,36.3,11.3,28.64,NW,314,0.0,0.0,35,0.00,,---,0.00,VWS V14.01,2013-03-28 04:00:00,
2013-03-27 23:05:00,36.1,10.5,28.64,NW,314,0.0,0.0,34,0.00,,---,0.00,VWS V14.01,2013-03-28 04:05:00,
2013-03-27 23:10:00,36.1,11.1,28.64,NW,314,0.0,0.0,35,0.00,,---,0.00,VWS V14.01,2013-03-28 04:10:00,
2013-03-27 23:11:00,36.1,11.1,28.64,NW,314,0.0,0.0,35,0.00,,---,0.00,VWS V14.01,2013-03-28 04:11:00,
2013-03-27 23:15:00,36.1,11.1,28.64,NW,314,0.0,0.0,35,0.00,,---,0.00,VWS V14.01,2013-03-28 04:15:00,
2013-03-27 23:16:00,36.1,11.1,28.64,NW,314,0.0,0.0,35,0.00,,---,0.00,VWS V14.01,2013-03-28 04:16:00,
2013-03-27 23:20:00,36.0,11.0,28.64,NW,314,0.0,0.0,35,0.00,,---,0.00,VWS V14.01,2013-03-28 04:20:00,
2013-03-27 23:21:00,36.0,11.0,28.64,NW,314,0.0,0.0,35,0.00,,---,0.00,VWS V14.01,2013-03-28 04:21:00,
2013-03-27 23:25:00,35.8,11.4,28.64,NW,314,0.0,0.0,36,0.00,,---,0.00,VWS V14.01,2013-03-28 04:25:00,
2013-03-27 23:26:00,35.8,11.4,28.64,NW,314,0.0,0.0,36,0.00,,---,0.00,VWS V14.01,2013-03-28 04:26:00,
2013-03-27 23:30:00,36.0,12.2,28.64,NW,314,0.0,0.0,37,0.00,,---,0.00,VWS V14.01,2013-03-28 04:30:00,
2013-03-27 23:31:00,36.0,12.2,28.64,NW,314,0.0,0.0,37,0.00,,---,0.00,VWS V14.01,2013-03-28 04:31:00,
2013-03-27 23:35:00,35.8,11.4,28.64,NW,314,0.0,0.0,36,0.00,,---,0.00,VWS V14.01,2013-03-28 04:35:00,
2013-03-27 23:36:00,35.8,11.4,28.64,NW,314,0.0,0.0,36,0.00,,---,0.00,VWS V14.01,2013-03-28 04:36:00,
2013-03-27 23:37:00,35.8,11.4,28.64,NW,314,0.0,0.0,36,0.00,,---,0.00,VWS V14.01,2013-03-28 04:37:00,
2013-03-27 23:41:00,35.8,11.4,28.64,NW,314,0.0,0.0,36,0.00,,---,0.00,VWS V14.01,2013-03-28 04:41:00,
2013-03-27 23:42:00,35.8,11.4,28.64,NW,314,0.0,0.0,36,0.00,,---,0.00,VWS V14.01,2013-03-28 04:42:00,
2013-03-27 23:46:00,35.4,11.8,28.64,NW,314,0.0,0.0,37,0.00,,---,0.00,VWS V14.01,2013-03-28 04:46:00,
2013-03-27 23:47:00,35.4,11.8,28.64,NW,314,0.0,0.0,37,0.00,,---,0.00,VWS V14.01,2013-03-28 04:47:00,
2013-03-27 23:51:00,35.2,11.6,28.64,NW,314,0.0,0.0,37,0.00,,---,0.00,VWS V14.01,2013-03-28 04:51:00,
2013-03-27 23:52:00,35.2,11.6,28.64,NW,314,0.0,0.0,37,0.00,,---,0.00,VWS V14.01,2013-03-28 04:52:00,
2013-03-27 23:56:00,35.1,11.4,28.64,NW,314,0.0,0.0,37,0.00,,---,0.00,VWS V14.01,2013-03-28 04:56:00,
2013-03-27 23:57:00,35.1,11.4,28.64,NW,314,0.0,0.0,37,0.00,,---,0.00,VWS V14.01,2013-03-28 04:57:00,
2013-03-27 23:58:00,35.1,11.4,28.64,NW,314,0.0,0.0,37,0.00,,---,0.00,VWS V14.01,2013-03-28 04:58:00,